GFSFLT1_prec_precacc_027.txt.gz
Total_Precipitation_Accumulation
0.01 0.01 0.01 0.02 0.02 0.00 0.03 0.08 0.05 0.06 0.02 0.01 0.03 0.01 0.00 0.03 0.02 0.00 0.00 0.00 0.00 0.00 0.00 0.00 0.00 0.00 0.00 0.00 0.00 0.00 0.00 0.00
0.03 0.02 0.02 0.01 0.06 0.02 0.05 0.03 0.01 0.00 0.00 0.01 0.04 0.03 0.03 0.03 0.01 0.00 0.00 0.00 0.00 0.00 0.00 0.00 0.00 0.00 0.00 0.00 0.00 0.00 0.00 0.00
0.01 0.00 0.00 0.01 0.04 0.03 0.00 0.00 0.00 0.01 0.01 0.00 0.01 0.02 0.04 0.05 0.02 0.00 0.00 0.00 0.00 0.00 0.00 0.00 0.00 0.00 0.00 0.00 0.00 0.00 0.00 0.00
0.00 0.00 0.00 0.01 0.01 0.01 0.01 0.01 0.01 0.00 0.00 0.00 0.00 0.07 0.04 0.01 0.01 0.00 0.00 0.00 0.00 0.00 0.00 0.00 0.00 0.00 0.00 0.00 0.00 0.00 0.00 0.00
0.00 0.01 0.01 0.02 0.03 0.03 0.05 0.03 0.03 0.00 0.00 0.00 0.00 0.05 0.02 0.00 0.00 0.00 0.00 0.00 0.00 0.00 0.00 0.00 0.00 0.00 0.00 0.00 0.00 0.00 0.00 0.00
0.00 0.01 0.01 0.02 0.04 0.04 0.02 0.02 0.04 0.02 0.01 0.01 0.02 0.05 0.04 0.01 0.00 0.00 0.00 0.00 0.00 0.00 0.00 0.00 0.00 0.00 0.00 0.00 0.00 0.00 0.00 0.00
0.04 0.05 0.02 0.03 0.05 0.05 0.06 0.04 0.04 0.07 0.08 0.07 0.04 0.05 0.04 0.02 0.01 0.01 0.00 0.00 0.00 0.00 0.00 0.00 0.00 0.00 0.00 0.01 0.01 0.00 0.00 0.00
0.01 0.02 0.02 0.02 0.06 0.04 0.03 0.06 0.14 0.12 0.09 0.08 0.08 0.05 0.05 0.05 0.04 0.03 0.02 0.02 0.01 0.01 0.00 0.00 0.00 0.01 0.01 0.00 0.00 0.00 0.00 0.00
0.01 0.03 0.05 0.06 0.04 0.03 0.02 0.08 0.19 0.21 0.16 0.13 0.13 0.14 0.12 0.09 0.06 0.03 0.02 0.02 0.01 0.01 0.00 0.00 0.00 0.00 0.00 0.00 0.01 0.01 0.01 0.01
0.05 0.02 0.03 0.06 0.05 0.05 0.09 0.10 0.09 0.14 0.16 0.15 0.16 0.16 0.15 0.13 0.10 0.07 0.05 0.02 0.01 0.00 0.00 0.00 0.01 0.02 0.02 0.03 0.01 0.00 0.01 0.00
0.00 0.00 0.00 0.01 0.00 0.04 0.06 0.03 0.04 0.05 0.07 0.14 0.21 0.22 0.19 0.15 0.08 0.05 0.03 0.01 0.01 0.00 0.00 0.01 0.01 0.01 0.00 0.00 0.00 0.00 0.00 0.00
0.00 0.00 0.00 0.00 0.00 0.00 0.04 0.02 0.02 0.06 0.14 0.23 0.21 0.20 0.13 0.09 0.07 0.04 0.02 0.01 0.01 0.00 0.00 0.00 0.00 0.00 0.00 0.01 0.00 0.00 0.00 0.00
0.00 0.00 0.00 0.00 0.00 0.00 0.01 0.03 0.06 0.15 0.10 0.12 0.16 0.15 0.10 0.08 0.06 0.04 0.02 0.01 0.00 0.00 0.00 0.00 0.00 0.00 0.00 0.00 0.00 0.00 0.00 0.00
0.00 0.00 0.00 0.00 0.00 0.04 0.09 0.10 0.10 0.08 0.13 0.13 0.10 0.09 0.09 0.07 0.04 0.02 0.00 0.00 0.00 0.00 0.00 0.00 0.00 0.00 0.00 0.00 0.00 0.00 0.00 0.01
0.00 0.00 0.00 0.00 0.05 0.10 0.09 0.07 0.05 0.09 0.13 0.10 0.09 0.07 0.05 0.02 0.01 0.00 0.00 0.00 0.00 0.00 0.00 0.00 0.00 0.00 0.01 0.03 0.02 0.00 0.00 0.00
0.00 0.01 0.01 0.01 0.05 0.06 0.04 0.05 0.05 0.06 0.06 0.04 0.03 0.02 0.01 0.00 0.00 0.00 0.00 0.00 0.00 0.00 0.00 0.00 0.01 0.05 0.07 0.05 0.00 0.00 0.00 0.00
0.00 0.00 0.01 0.01 0.01 0.01 0.01 0.02 0.02 0.01 0.01 0.01 0.00 0.00 0.00 0.00 0.00 0.00 0.00 0.00 0.00 0.00 0.01 0.04 0.08 0.10 0.04 0.00 0.00 0.00 0.00 0.00
0.00 0.00 0.00 0.00 0.01 0.00 0.01 0.00 0.00 0.00 0.00 0.00 0.00 0.00 0.00 0.00 0.00 0.00 0.00 0.00 0.01 0.03 0.07 0.12 0.11 0.06 0.00 0.00 0.00 0.00 0.00 0.00
0.00 0.00 0.00 0.00 0.00 0.00 0.00 0.00 0.00 0.00 0.00 0.00 0.00 0.00 0.00 0.01 0.01 0.01 0.02 0.05 0.11 0.15 0.16 0.10 0.02 0.00 0.01 0.01 0.00 0.00 0.00 0.00

GFSFLT1_prec_precacc_030.txt.gz
Total_Precipitation_Accumulation
0.01 0.01 0.01 0.02 0.02 0.00 0.03 0.08 0.05 0.07 0.03 0.01 0.03 0.01 0.02 0.04 0.03 0.00 0.00 0.00 0.00 0.00 0.00 0.00 0.00 0.00 0.00 0.00 0.00 0.00 0.00 0.00
0.03 0.02 0.02 0.01 0.06 0.02 0.05 0.03 0.01 0.00 0.00 0.01 0.04 0.03 0.03 0.04 0.03 0.00 0.00 0.00 0.00 0.00 0.00 0.00 0.00 0.00 0.00 0.00 0.00 0.00 0.00 0.00
0.01 0.00 0.00 0.01 0.04 0.03 0.00 0.00 0.00 0.01 0.01 0.00 0.01 0.02 0.04 0.07 0.05 0.02 0.01 0.00 0.00 0.00 0.00 0.00 0.00 0.00 0.00 0.00 0.00 0.00 0.00 0.00
0.00 0.00 0.00 0.01 0.01 0.01 0.01 0.01 0.01 0.00 0.00 0.00 0.00 0.07 0.05 0.06 0.11 0.06 0.01 0.00 0.00 0.00 0.00 0.00 0.00 0.00 0.00 0.00 0.00 0.00 0.00 0.00
0.00 0.01 0.01 0.02 0.03 0.03 0.05 0.03 0.03 0.00 0.00 0.00 0.00 0.05 0.05 0.09 0.09 0.03 0.00 0.00 0.00 0.00 0.00 0.00 0.00 0.00 0.00 0.00 0.00 0.00 0.00 0.00
0.00 0.01 0.01 0.02 0.04 0.04 0.02 0.02 0.04 0.02 0.01 0.01 0.02 0.05 0.07 0.05 0.02 0.01 0.00 0.00 0.00 0.00 0.00 0.00 0.00 0.00 0.00 0.00 0.00 0.01 0.00 0.00
0.04 0.05 0.02 0.03 0.05 0.05 0.06 0.04 0.04 0.07 0.08 0.07 0.04 0.06 0.06 0.03 0.02 0.02 0.01 0.01 0.01 0.00 0.00 0.00 0.00 0.00 0.00 0.01 0.01 0.00 0.00 0.00
0.01 0.02 0.02 0.02 0.06 0.04 0.03 0.06 0.14 0.12 0.09 0.08 0.09 0.07 0.06 0.06 0.07 0.07 0.05 0.03 0.03 0.02 0.00 0.00 0.00 0.01 0.01 0.00 0.01 0.01 0.00 0.00
0.01 0.03 0.05 0.06 0.04 0.03 0.02 0.08 0.19 0.21 0.16 0.13 0.16 0.18 0.20 0.17 0.16 0.12 0.08 0.06 0.04 0.03 0.04 0.03 0.00 0.00 0.01 0.03 0.04 0.01 0.01 0.01
0.05 0.02 0.03 0.06 0.05 0.05 0.09 0.10 0.09 0.14 0.16 0.16 0.20 0.21 0.20 0.21 0.16 0.11 0.07 0.04 0.02 0.01 0.02 0.00 0.01 0.04 0.07 0.07 0.02 0.00 0.01 0.00
0.00 0.00 0.00 0.01 0.00 0.04 0.06 0.03 0.04 0.05 0.07 0.14 0.23 0.28 0.29 0.24 0.15 0.10 0.05 0.03 0.01 0.00 0.00 0.03 0.08 0.07 0.05 0.01 0.00 0.00 0.00 0.00
0.00 0.00 0.00 0.00 0.00 0.00 0.04 0.02 0.02 0.06 0.14 0.24 0.24 0.29 0.25 0.18 0.15 0.11 0.06 0.02 0.02 0.05 0.09 0.10 0.04 0.00 0.00 0.01 0.00 0.00 0.00 0.00
0.00 0.00 0.00 0.00 0.00 0.00 0.01 0.03 0.06 0.15 0.10 0.13 0.18 0.19 0.17 0.14 0.12 0.09 0.06 0.04 0.04 0.03 0.01 0.00 0.00 0.00 0.00 0.00 0.00 0.00 0.01 0.01
0.00 0.00 0.00 0.00 0.00 0.04 0.09 0.10 0.10 0.08 0.14 0.13 0.11 0.11 0.11 0.09 0.07 0.04 0.02 0.02 0.02 0.01 0.00 0.00 0.00 0.00 0.00 0.00 0.00 0.05 0.05 0.01
0.00 0.00 0.00 0.00 0.05 0.10 0.09 0.07 0.06 0.10 0.14 0.12 0.11 0.11 0.07 0.06 0.03 0.01 0.00 0.00 0.00 0.00 0.00 0.00 0.00 0.00 0.01 0.06 0.09 0.04 0.00 0.00
0.00 0.01 0.01 0.01 0.05 0.06 0.04 0.06 0.06 0.08 0.06 0.04 0.03 0.02 0.01 0.00 0.00 0.00 0.00 0.00 0.00 0.00 0.00 0.00 0.02 0.05 0.10 0.10 0.04 0.01 0.00 0.00
0.00 0.00 0.01 0.01 0.01 0.01 0.02 0.02 0.02 0.01 0.01 0.01 0.00 0.00 0.00 0.00 0.00 0.00 0.00 0.00 0.00 0.00 0.02 0.05 0.09 0.12 0.11 0.09 0.02 0.00 0.00 0.00
0.00 0.00 0.00 0.00 0.01 0.00 0.01 0.00 0.00 0.00 0.00 0.00 0.00 0.00 0.00 0.00 0.00 0.00 0.00 0.00 0.01 0.03 0.07 0.13 0.15 0.12 0.05 0.02 0.00 0.00 0.00 0.00
0.00 0.00 0.00 0.00 0.00 0.00 0.00 0.00 0.00 0.00 0.00 0.00 0.00 0.00 0.00 0.01 0.01 0.01 0.02 0.05 0.11 0.15 0.17 0.13 0.06 0.01 0.02 0.04 0.02 0.00 0.00 0.00

GFSFLT1_prec_precacc_033.txt.gz
Total_Precipitation_Accumulation
0.01 0.01 0.01 0.02 0.02 0.00 0.03 0.09 0.07 0.11 0.09 0.02 0.03 0.01 0.02 0.07 0.09 0.03 0.00 0.00 0.00 0.00 0.00 0.00 0.00 0.00 0.00 0.00 0.00 0.00 0.00 0.00
0.03 0.02 0.02 0.01 0.06 0.02 0.05 0.03 0.01 0.02 0.02 0.01 0.04 0.03 0.03 0.08 0.11 0.02 0.00 0.00 0.00 0.00 0.00 0.00 0.00 0.00 0.00 0.00 0.00 0.00 0.00 0.00
0.01 0.00 0.00 0.01 0.04 0.03 0.00 0.00 0.00 0.01 0.01 0.00 0.01 0.02 0.04 0.10 0.14 0.05 0.01 0.01 0.00 0.00 0.00 0.00 0.00 0.00 0.00 0.00 0.00 0.00 0.00 0.00
0.00 0.00 0.00 0.01 0.01 0.01 0.01 0.01 0.01 0.00 0.00 0.00 0.00 0.07 0.05 0.07 0.12 0.07 0.03 0.01 0.00 0.00 0.00 0.00 0.00 0.00 0.00 0.00 0.00 0.00 0.00 0.00
0.00 0.01 0.01 0.02 0.03 0.03 0.05 0.03 0.03 0.00 0.00 0.00 0.00 0.05 0.05 0.09 0.10 0.04 0.00 0.00 0.00 0.00 0.00 0.00 0.00 0.00 0.00 0.00 0.00 0.00 0.00 0.00
0.00 0.01 0.01 0.02 0.04 0.04 0.02 0.02 0.04 0.02 0.01 0.01 0.02 0.05 0.07 0.05 0.02 0.01 0.00 0.00 0.00 0.00 0.00 0.00 0.00 0.00 0.00 0.00 0.00 0.01 0.00 0.00
0.04 0.05 0.02 0.03 0.05 0.05 0.06 0.04 0.04 0.07 0.08 0.07 0.04 0.06 0.06 0.03 0.03 0.02 0.01 0.01 0.02 0.02 0.01 0.00 0.00 0.00 0.00 0.01 0.01 0.00 0.00 0.01
0.01 0.02 0.02 0.02 0.06 0.04 0.03 0.06 0.14 0.12 0.09 0.08 0.09 0.07 0.06 0.06 0.08 0.08 0.06 0.05 0.04 0.04 0.03 0.03 0.03 0.03 0.04 0.02 0.02 0.03 0.03 0.01
0.01 0.03 0.05 0.06 0.04 0.03 0.02 0.08 0.19 0.21 0.16 0.13 0.16 0.18 0.20 0.18 0.19 0.17 0.12 0.12 0.17 0.16 0.10 0.07 0.04 0.02 0.02 0.04 0.06 0.05 0.03 0.01
0.05 0.02 0.03 0.06 0.05 0.05 0.09 0.10 0.09 0.14 0.16 0.16 0.20 0.21 0.20 0.23 0.22 0.16 0.09 0.05 0.03 0.02 0.02 0.01 0.02 0.04 0.09 0.12 0.09 0.04 0.02 0.01
0.00 0.00 0.00 0.01 0.00 0.04 0.06 0.03 0.04 0.05 0.07 0.15 0.24 0.28 0.30 0.29 0.20 0.12 0.07 0.04 0.01 0.00 0.00 0.03 0.10 0.15 0.15 0.10 0.04 0.01 0.00 0.00
0.00 0.00 0.00 0.00 0.00 0.00 0.04 0.02 0.02 0.06 0.14 0.24 0.24 0.30 0.31 0.26 0.19 0.12 0.08 0.04 0.03 0.05 0.10 0.12 0.10 0.05 0.02 0.01 0.00 0.00 0.00 0.00
0.00 0.00 0.00 0.00 0.00 0.00 0.01 0.03 0.06 0.15 0.10 0.13 0.19 0.22 0.21 0.21 0.19 0.12 0.09 0.06 0.04 0.03 0.01 0.01 0.00 0.00 0.01 0.00 0.01 0.00 0.01 0.05
0.00 0.00 0.00 0.00 0.00 0.04 0.09 0.10 0.10 0.08 0.14 0.13 0.11 0.12 0.13 0.12 0.10 0.08 0.05 0.03 0.02 0.01 0.01 0.02 0.02 0.01 0.01 0.01 0.01 0.05 0.08 0.04
0.00 0.00 0.00 0.00 0.05 0.10 0.09 0.07 0.06 0.10 0.14 0.14 0.12 0.14 0.08 0.07 0.04 0.01 0.00 0.00 0.00 0.00 0.00 0.01 0.01 0.00 0.01 0.06 0.09 0.07 0.06 0.04
0.00 0.01 0.01 0.01 0.05 0.06 0.04 0.06 0.07 0.09 0.09 0.07 0.05 0.03 0.01 0.00 0.00 0.00 0.00 0.00 0.00 0.00 0.00 0.00 0.02 0.06 0.11 0.11 0.12 0.12 0.03 0.01
0.00 0.00 0.01 0.01 0.01 0.01 0.02 0.03 0.04 0.03 0.02 0.01 0.01 0.00 0.00 0.00 0.00 0.00 0.00 0.00 0.00 0.00 0.02 0.05 0.09 0.13 0.13 0.12 0.05 0.01 0.00 0.00
0.00 0.00 0.00 0.00 0.01 0.00 0.01 0.01 0.00 0.00 0.00 0.00 0.00 0.00 0.00 0.00 0.00 0.00 0.00 0.00 0.01 0.03 0.07 0.13 0.15 0.12 0.06 0.02 0.01 0.00 0.01 0.00
0.00 0.00 0.00 0.00 0.00 0.00 0.00 0.00 0.00 0.00 0.00 0.00 0.00 0.00 0.00 0.01 0.01 0.01 0.02 0.05 0.11 0.15 0.17 0.13 0.06 0.01 0.02 0.04 0.03 0.01 0.01 0.00

GFSFLT1_prec_precacc_036.txt.gz
Total_Precipitation_Accumulation
0.01 0.01 0.01 0.02 0.02 0.00 0.03 0.09 0.08 0.11 0.11 0.03 0.03 0.01 0.02 0.07 0.10 0.03 0.03 0.00 0.00 0.00 0.00 0.00 0.00 0.00 0.00 0.00 0.00 0.00 0.00 0.00
0.03 0.02 0.02 0.01 0.06 0.02 0.05 0.03 0.01 0.03 0.04 0.01 0.04 0.03 0.03 0.08 0.17 0.05 0.20 0.07 0.02 0.00 0.00 0.00 0.00 0.00 0.00 0.00 0.00 0.00 0.00 0.00
0.01 0.00 0.00 0.01 0.04 0.03 0.00 0.00 0.00 0.01 0.01 0.00 0.01 0.02 0.04 0.10 0.14 0.09 0.16 0.11 0.00 0.00 0.00 0.00 0.00 0.00 0.00 0.00 0.00 0.00 0.00 0.00
0.00 0.00 0.00 0.01 0.01 0.01 0.01 0.01 0.01 0.00 0.00 0.00 0.00 0.07 0.05 0.07 0.12 0.09 0.06 0.05 0.01 0.00 0.00 0.00 0.00 0.00 0.00 0.00 0.00 0.00 0.00 0.00
0.00 0.01 0.01 0.02 0.03 0.03 0.05 0.03 0.03 0.00 0.00 0.00 0.00 0.05 0.05 0.09 0.10 0.04 0.00 0.01 0.01 0.03 0.00 0.00 0.00 0.00 0.00 0.00 0.00 0.00 0.00 0.00
0.00 0.01 0.01 0.02 0.04 0.04 0.02 0.02 0.04 0.02 0.01 0.01 0.02 0.05 0.07 0.05 0.02 0.01 0.00 0.00 0.00 0.03 0.00 0.00 0.00 0.00 0.00 0.00 0.01 0.01 0.00 0.00
0.04 0.05 0.02 0.03 0.05 0.05 0.06 0.04 0.04 0.07 0.08 0.07 0.04 0.06 0.06 0.03 0.03 0.04 0.01 0.01 0.03 0.05 0.03 0.01 0.01 0.03 0.08 0.10 0.07 0.01 0.01 0.02
0.01 0.02 0.02 0.02 0.06 0.04 0.03 0.06 0.14 0.12 0.09 0.08 0.09 0.07 0.06 0.06 0.09 0.15 0.09 0.07 0.05 0.05 0.04 0.06 0.11 0.15 0.12 0.07 0.03 0.04 0.04 0.03
0.01 0.03 0.05 0.06 0.04 0.03 0.02 0.08 0.19 0.21 0.16 0.13 0.16 0.18 0.20 0.22 0.25 0.29 0.23 0.19 0.18 0.22 0.20 0.15 0.08 0.03 0.02 0.04 0.06 0.07 0.08 0.10
0.05 0.02 0.03 0.06 0.05 0.05 0.09 0.10 0.09 0.14 0.16 0.16 0.21 0.28 0.31 0.42 0.39 0.25 0.21 0.09 0.03 0.02 0.02 0.01 0.02 0.04 0.09 0.12 0.12 0.10 0.08 0.04
0.00 0.00 0.00 0.01 0.00 0.04 0.06 0.03 0.04 0.05 0.07 0.15 0.27 0.41 0.41 0.37 0.28 0.32 0.20 0.09 0.03 0.02 0.01 0.03 0.10 0.15 0.15 0.12 0.06 0.03 0.02 0.01
0.00 0.00 0.00 0.00 0.00 0.00 0.04 0.02 0.02 0.06 0.15 0.29 0.31 0.40 0.50 0.38 0.26 0.25 0.19 0.10 0.07 0.06 0.10 0.12 0.10 0.05 0.03 0.02 0.01 0.02 0.02 0.01
0.00 0.00 0.00 0.00 0.00 0.00 0.01 0.03 0.06 0.15 0.11 0.25 0.45 0.31 0.41 0.34 0.34 0.18 0.14 0.09 0.07 0.03 0.01 0.01 0.00 0.01 0.01 0.01 0.02 0.03 0.04 0.07
0.00 0.00 0.00 0.00 0.00 0.04 0.09 0.10 0.11 0.09 0.15 0.23 0.27 0.16 0.39 0.22 0.18 0.14 0.09 0.04 0.02 0.01 0.01 0.02 0.03 0.02 0.02 0.02 0.03 0.08 0.10 0.05
0.00 0.00 0.00 0.00 0.05 0.10 0.09 0.07 0.07 0.11 0.17 0.20 0.14 0.18 0.19 0.11 0.06 0.03 0.01 0.00 0.00 0.00 0.01 0.01 0.01 0.01 0.02 0.06 0.10 0.08 0.08 0.07
0.00 0.01 0.01 0.01 0.05 0.06 0.04 0.06 0.08 0.14 0.13 0.09 0.06 0.10 0.03 0.01 0.01 0.00 0.00 0.00 0.00 0.00 0.00 0.00 0.02 0.06 0.11 0.12 0.12 0.12 0.04 0.01
0.00 0.00 0.01 0.01 0.01 0.01 0.02 0.03 0.05 0.04 0.03 0.02 0.01 0.01 0.00 0.00 0.00 0.00 0.00 0.00 0.00 0.00 0.02 0.05 0.09 0.13 0.13 0.12 0.06 0.01 0.00 0.00
0.00 0.00 0.00 0.00 0.01 0.00 0.01 0.01 0.01 0.01 0.01 0.00 0.00 0.00 0.00 0.00 0.00 0.00 0.00 0.00 0.01 0.03 0.07 0.13 0.15 0.12 0.06 0.02 0.01 0.00 0.01 0.00
0.00 0.00 0.00 0.00 0.00 0.00 0.00 0.00 0.00 0.00 0.00 0.00 0.00 0.00 0.00 0.01 0.01 0.01 0.02 0.05 0.11 0.15 0.17 0.13 0.06 0.01 0.02 0.04 0.03 0.01 0.01 0.00

GFSFLT1_prec_precacc_039.txt.gz
Total_Precipitation_Accumulation
0.01 0.01 0.01 0.02 0.02 0.00 0.03 0.09 0.08 0.11 0.11 0.03 0.03 0.01 0.02 0.07 0.10 0.05 0.04 0.01 0.03 0.02 0.01 0.01 0.00 0.00 0.00 0.00 0.00 0.00 0.00 0.00
0.03 0.02 0.02 0.01 0.06 0.02 0.05 0.03 0.01 0.03 0.04 0.01 0.04 0.03 0.03 0.08 0.17 0.06 0.23 0.10 0.10 0.04 0.01 0.00 0.00 0.00 0.00 0.00 0.00 0.00 0.00 0.00
0.01 0.00 0.00 0.01 0.04 0.03 0.00 0.00 0.00 0.01 0.01 0.00 0.01 0.02 0.04 0.10 0.14 0.13 0.21 0.19 0.06 0.04 0.01 0.00 0.00 0.00 0.00 0.00 0.00 0.00 0.00 0.00
0.00 0.00 0.00 0.01 0.01 0.01 0.01 0.01 0.01 0.00 0.00 0.00 0.00 0.07 0.05 0.07 0.12 0.11 0.11 0.10 0.04 0.06 0.02 0.00 0.00 0.00 0.00 0.00 0.00 0.00 0.00 0.00
0.00 0.01 0.01 0.02 0.03 0.03 0.05 0.03 0.03 0.00 0.00 0.00 0.00 0.05 0.05 0.09 0.10 0.05 0.03 0.01 0.06 0.19 0.05 0.01 0.00 0.00 0.00 0.00 0.00 0.00 0.00 0.00
0.00 0.01 0.01 0.02 0.04 0.04 0.02 0.02 0.04 0.02 0.01 0.01 0.02 0.05 0.07 0.05 0.02 0.01 0.01 0.03 0.03 0.11 0.05 0.01 0.00 0.00 0.00 0.00 0.01 0.02 0.05 0.07
0.04 0.05 0.02 0.03 0.05 0.05 0.06 0.04 0.04 0.07 0.08 0.07 0.04 0.09 0.07 0.03 0.03 0.04 0.04 0.03 0.16 0.15 0.10 0.05 0.03 0.05 0.10 0.12 0.13 0.08 0.05 0.05
0.01 0.02 0.02 0.02 0.06 0.04 0.03 0.06 0.14 0.12 0.09 0.08 0.09 0.08 0.07 0.06 0.09 0.20 0.21 0.18 0.21 0.14 0.15 0.10 0.11 0.17 0.16 0.10 0.06 0.04 0.05 0.04
0.01 0.03 0.05 0.06 0.04 0.03 0.02 0.08 0.19 0.21 0.16 0.13 0.16 0.19 0.20 0.22 0.27 0.40 0.43 0.33 0.28 0.34 0.24 0.17 0.08 0.06 0.04 0.04 0.06 0.07 0.08 0.10
0.05 0.02 0.03 0.06 0.05 0.05 0.09 0.10 0.09 0.14 0.16 0.16 0.21 0.28 0.31 0.43 0.43 0.32 0.33 0.22 0.13 0.15 0.11 0.04 0.02 0.04 0.09 0.12 0.12 0.10 0.08 0.05
0.00 0.01 0.00 0.01 0.00 0.04 0.06 0.03 0.05 0.09 0.13 0.15 0.27 0.41 0.42 0.38 0.31 0.39 0.31 0.26 0.23 0.21 0.15 0.13 0.14 0.16 0.15 0.12 0.06 0.03 0.03 0.02
0.00 0.01 0.01 0.01 0.00 0.01 0.04 0.08 0.31 0.27 0.29 0.34 0.35 0.43 0.58 0.59 0.46 0.39 0.37 0.19 0.16 0.22 0.21 0.16 0.11 0.06 0.03 0.02 0.01 0.02 0.02 0.02
0.00 0.00 0.00 0.00 0.01 0.01 0.02 0.04 0.16 0.31 0.23 0.46 0.69 0.61 0.84 0.96 0.83 0.49 0.45 0.19 0.17 0.07 0.02 0.02 0.02 0.01 0.01 0.01 0.03 0.03 0.04 0.09
0.00 0.00 0.00 0.00 0.00 0.04 0.10 0.14 0.26 0.33 0.48 0.59 0.57 0.40 0.68 0.49 0.45 0.31 0.15 0.09 0.05 0.02 0.01 0.02 0.03 0.02 0.02 0.02 0.03 0.08 0.11 0.06
0.00 0.00 0.00 0.00 0.05 0.10 0.09 0.09 0.19 0.31 0.28 0.28 0.21 0.19 0.25 0.19 0.12 0.07 0.06 0.03 0.03 0.02 0.01 0.01 0.01 0.01 0.02 0.07 0.10 0.08 0.09 0.08
0.00 0.01 0.01 0.01 0.05 0.06 0.04 0.06 0.10 0.16 0.14 0.09 0.07 0.14 0.04 0.04 0.04 0.02 0.00 0.02 0.01 0.00 0.00 0.01 0.02 0.06 0.11 0.12 0.12 0.12 0.04 0.01
0.00 0.00 0.01 0.01 0.01 0.01 0.02 0.03 0.06 0.05 0.03 0.02 0.01 0.02 0.01 0.01 0.01 0.00 0.00 0.00 0.00 0.00 0.02 0.05 0.09 0.13 0.13 0.13 0.06 0.01 0.00 0.00
0.00 0.00 0.00 0.01 0.01 0.00 0.01 0.01 0.01 0.01 0.01 0.00 0.00 0.00 0.00 0.00 0.00 0.00 0.00 0.00 0.01 0.03 0.07 0.13 0.15 0.12 0.06 0.02 0.01 0.00 0.01 0.00
0.00 0.00 0.00 0.00 0.00 0.00 0.00 0.00 0.00 0.00 0.00 0.00 0.00 0.00 0.00 0.01 0.01 0.01 0.02 0.05 0.11 0.15 0.17 0.13 0.06 0.01 0.02 0.04 0.03 0.01 0.01 0.00

GFSFLT1_prec_precacc_042.txt.gz
Total_Precipitation_Accumulation
0.01 0.01 0.01 0.02 0.02 0.00 0.03 0.09 0.08 0.12 0.11 0.03 0.03 0.01 0.02 0.07 0.10 0.05 0.04 0.01 0.03 0.02 0.01 0.01 0.00 0.00 0.00 0.00 0.00 0.00 0.00 0.00
0.03 0.02 0.02 0.01 0.06 0.02 0.05 0.03 0.01 0.03 0.04 0.01 0.04 0.03 0.03 0.08 0.17 0.06 0.23 0.10 0.10 0.04 0.01 0.00 0.00 0.00 0.00 0.00 0.00 0.00 0.00 0.00
0.01 0.00 0.00 0.01 0.04 0.03 0.00 0.00 0.00 0.01 0.01 0.00 0.01 0.02 0.04 0.10 0.14 0.13 0.21 0.19 0.06 0.04 0.01 0.00 0.00 0.00 0.00 0.00 0.00 0.00 0.00 0.00
0.00 0.00 0.00 0.01 0.01 0.01 0.01 0.01 0.01 0.00 0.00 0.00 0.00 0.07 0.05 0.07 0.12 0.11 0.11 0.10 0.04 0.06 0.02 0.00 0.00 0.00 0.00 0.00 0.00 0.00 0.00 0.00
0.00 0.01 0.01 0.02 0.03 0.03 0.05 0.03 0.03 0.00 0.00 0.00 0.00 0.05 0.05 0.09 0.10 0.05 0.03 0.01 0.06 0.19 0.07 0.02 0.00 0.00 0.00 0.00 0.00 0.00 0.00 0.00
0.00 0.01 0.01 0.02 0.04 0.04 0.02 0.02 0.04 0.02 0.01 0.01 0.02 0.05 0.07 0.05 0.02 0.01 0.01 0.03 0.03 0.11 0.09 0.05 0.01 0.03 0.04 0.03 0.02 0.03 0.08 0.11
0.04 0.05 0.02 0.03 0.05 0.05 0.06 0.04 0.04 0.07 0.08 0.07 0.04 0.09 0.07 0.03 0.03 0.04 0.04 0.03 0.17 0.21 0.19 0.14 0.09 0.10 0.16 0.17 0.16 0.10 0.06 0.05
0.01 0.02 0.02 0.02 0.06 0.04 0.03 0.06 0.14 0.12 0.09 0.08 0.09 0.08 0.07 0.06 0.09 0.20 0.21 0.18 0.30 0.28 0.26 0.22 0.18 0.24 0.22 0.16 0.08 0.05 0.05 0.04
0.01 0.03 0.05 0.06 0.04 0.03 0.02 0.08 0.19 0.21 0.16 0.13 0.16 0.19 0.20 0.22 0.27 0.42 0.44 0.34 0.31 0.43 0.38 0.35 0.20 0.12 0.12 0.10 0.08 0.07 0.08 0.10
0.05 0.02 0.03 0.06 0.05 0.05 0.09 0.10 0.09 0.14 0.16 0.16 0.21 0.28 0.31 0.43 0.46 0.37 0.35 0.23 0.14 0.21 0.25 0.20 0.15 0.17 0.19 0.18 0.15 0.11 0.08 0.05
0.00 0.01 0.00 0.01 0.01 0.05 0.06 0.03 0.06 0.12 0.15 0.16 0.27 0.41 0.42 0.41 0.33 0.42 0.37 0.32 0.33 0.36 0.31 0.25 0.26 0.27 0.24 0.17 0.08 0.04 0.04 0.03
0.00 0.01 0.01 0.01 0.00 0.01 0.06 0.11 0.33 0.29 0.36 0.39 0.37 0.46 0.61 0.67 0.60 0.56 0.53 0.48 0.45 0.37 0.30 0.25 0.16 0.10 0.05 0.02 0.02 0.04 0.04 0.03
0.00 0.00 0.00 0.01 0.01 0.01 0.02 0.07 0.19 0.35 0.31 0.51 0.73 0.66 0.98 1.49 1.50 1.15 1.24 1.11 0.63 0.18 0.10 0.08 0.05 0.04 0.03 0.01 0.03 0.04 0.05 0.09
0.00 0.00 0.00 0.00 0.00 0.04 0.10 0.15 0.27 0.42 0.63 0.76 0.76 0.62 0.99 0.94 0.65 0.47 0.39 0.45 0.26 0.04 0.03 0.06 0.05 0.04 0.03 0.02 0.03 0.09 0.12 0.07
0.00 0.00 0.00 0.00 0.05 0.10 0.09 0.09 0.23 0.34 0.37 0.47 0.37 0.30 0.34 0.31 0.23 0.17 0.12 0.08 0.10 0.05 0.04 0.04 0.02 0.02 0.02 0.07 0.10 0.08 0.09 0.09
0.00 0.01 0.01 0.01 0.05 0.06 0.04 0.07 0.12 0.16 0.15 0.17 0.13 0.21 0.13 0.12 0.07 0.06 0.04 0.05 0.06 0.04 0.03 0.02 0.02 0.06 0.12 0.13 0.13 0.12 0.04 0.01
0.00 0.00 0.01 0.01 0.01 0.01 0.02 0.03 0.06 0.05 0.05 0.08 0.06 0.08 0.07 0.06 0.04 0.02 0.02 0.03 0.02 0.01 0.03 0.05 0.10 0.14 0.15 0.13 0.06 0.01 0.00 0.00
0.00 0.00 0.00 0.01 0.01 0.00 0.01 0.01 0.01 0.02 0.05 0.04 0.04 0.04 0.05 0.04 0.04 0.03 0.01 0.00 0.01 0.03 0.07 0.13 0.15 0.13 0.06 0.02 0.01 0.00 0.01 0.00
0.00 0.00 0.00 0.00 0.00 0.00 0.00 0.00 0.00 0.01 0.02 0.03 0.03 0.03 0.03 0.04 0.02 0.01 0.02 0.05 0.11 0.15 0.17 0.13 0.06 0.01 0.02 0.04 0.03 0.01 0.01 0.00

GFSFLT1_prec_precacc_045.txt.gz
Total_Precipitation_Accumulation
0.01 0.01 0.01 0.02 0.02 0.00 0.04 0.10 0.11 0.15 0.11 0.04 0.03 0.02 0.02 0.07 0.10 0.05 0.04 0.01 0.03 0.02 0.01 0.01 0.00 0.00 0.00 0.00 0.00 0.00 0.00 0.00
0.03 0.02 0.02 0.01 0.06 0.02 0.05 0.03 0.02 0.05 0.05 0.01 0.05 0.03 0.03 0.08 0.17 0.06 0.23 0.10 0.10 0.04 0.01 0.00 0.00 0.00 0.00 0.00 0.00 0.00 0.00 0.00
0.01 0.00 0.00 0.01 0.04 0.03 0.00 0.00 0.00 0.01 0.01 0.00 0.01 0.02 0.04 0.10 0.14 0.13 0.21 0.19 0.06 0.04 0.01 0.00 0.00 0.00 0.00 0.00 0.00 0.00 0.00 0.00
0.00 0.00 0.00 0.01 0.01 0.01 0.01 0.01 0.01 0.00 0.00 0.00 0.00 0.07 0.05 0.07 0.12 0.11 0.11 0.10 0.04 0.06 0.02 0.00 0.00 0.00 0.00 0.00 0.00 0.00 0.00 0.00
0.00 0.01 0.01 0.02 0.03 0.03 0.05 0.03 0.03 0.00 0.00 0.00 0.00 0.05 0.05 0.09 0.10 0.05 0.03 0.01 0.06 0.19 0.07 0.02 0.00 0.00 0.00 0.00 0.00 0.01 0.01 0.00
0.00 0.01 0.01 0.02 0.04 0.04 0.02 0.02 0.04 0.02 0.01 0.01 0.02 0.05 0.07 0.05 0.02 0.01 0.01 0.03 0.03 0.11 0.09 0.06 0.02 0.05 0.07 0.08 0.07 0.08 0.10 0.12
0.04 0.05 0.02 0.03 0.05 0.05 0.06 0.04 0.04 0.07 0.08 0.07 0.04 0.09 0.07 0.03 0.03 0.04 0.04 0.03 0.17 0.21 0.19 0.16 0.13 0.13 0.22 0.25 0.22 0.14 0.10 0.06
0.01 0.02 0.02 0.02 0.06 0.04 0.03 0.06 0.14 0.12 0.09 0.08 0.09 0.08 0.07 0.06 0.09 0.20 0.21 0.18 0.30 0.28 0.26 0.25 0.22 0.31 0.33 0.26 0.17 0.12 0.09 0.06
0.01 0.03 0.05 0.06 0.04 0.03 0.02 0.08 0.19 0.21 0.16 0.13 0.16 0.19 0.20 0.22 0.27 0.42 0.44 0.34 0.31 0.43 0.39 0.42 0.33 0.24 0.26 0.25 0.21 0.17 0.15 0.13
0.05 0.02 0.03 0.06 0.05 0.05 0.09 0.10 0.09 0.14 0.16 0.16 0.21 0.28 0.31 0.43 0.46 0.37 0.36 0.27 0.16 0.22 0.30 0.28 0.27 0.37 0.40 0.36 0.24 0.16 0.12 0.06
0.00 0.01 0.00 0.01 0.01 0.06 0.06 0.03 0.06 0.12 0.16 0.16 0.27 0.41 0.42 0.41 0.33 0.43 0.38 0.37 0.38 0.45 0.45 0.46 0.49 0.47 0.35 0.24 0.13 0.07 0.05 0.03
0.00 0.01 0.01 0.01 0.00 0.02 0.09 0.15 0.34 0.34 0.43 0.50 0.43 0.47 0.62 0.69 0.62 0.60 0.58 0.55 0.55 0.57 0.56 0.46 0.31 0.18 0.09 0.03 0.03 0.04 0.05 0.05
0.00 0.00 0.00 0.01 0.01 0.01 0.03 0.09 0.19 0.37 0.40 0.65 0.84 0.72 1.03 1.56 1.61 1.25 1.47 1.48 1.11 0.81 0.59 0.30 0.09 0.06 0.03 0.02 0.04 0.05 0.07 0.12
0.00 0.00 0.00 0.00 0.00 0.04 0.10 0.16 0.27 0.43 0.64 0.79 0.82 0.68 1.07 1.00 0.70 0.52 0.42 0.50 0.46 0.25 0.13 0.10 0.08 0.06 0.04 0.04 0.05 0.10 0.14 0.10
0.00 0.00 0.00 0.00 0.05 0.10 0.09 0.09 0.23 0.34 0.37 0.47 0.38 0.33 0.39 0.35 0.26 0.18 0.17 0.15 0.12 0.07 0.06 0.08 0.06 0.05 0.05 0.09 0.12 0.10 0.10 0.10
0.00 0.01 0.01 0.01 0.05 0.06 0.04 0.07 0.12 0.16 0.15 0.17 0.14 0.23 0.17 0.14 0.09 0.06 0.09 0.12 0.16 0.10 0.09 0.07 0.07 0.09 0.15 0.14 0.13 0.13 0.05 0.01
0.00 0.00 0.01 0.01 0.01 0.01 0.02 0.03 0.06 0.05 0.05 0.09 0.07 0.10 0.10 0.10 0.06 0.04 0.05 0.08 0.08 0.08 0.10 0.12 0.15 0.17 0.19 0.14 0.06 0.01 0.00 0.00
0.00 0.00 0.00 0.01 0.01 0.00 0.01 0.01 0.01 0.02 0.05 0.04 0.05 0.06 0.08 0.06 0.07 0.05 0.06 0.07 0.04 0.06 0.11 0.16 0.17 0.14 0.08 0.03 0.01 0.00 0.01 0.00
0.00 0.00 0.00 0.00 0.00 0.00 0.00 0.00 0.00 0.01 0.03 0.04 0.04 0.05 0.05 0.07 0.06 0.05 0.05 0.06 0.11 0.16 0.17 0.14 0.06 0.02 0.04 0.05 0.04 0.01 0.01 0.00

GFSFLT1_prec_precacc_048.txt.gz
Total_Precipitation_Accumulation
0.01 0.01 0.01 0.03 0.02 0.01 0.11 0.12 0.18 0.29 0.17 0.06 0.04 0.02 0.03 0.07 0.10 0.05 0.04 0.01 0.04 0.03 0.01 0.01 0.00 0.00 0.00 0.00 0.00 0.00 0.00 0.00
0.03 0.02 0.02 0.01 0.06 0.03 0.06 0.07 0.05 0.14 0.15 0.05 0.05 0.04 0.04 0.08 0.17 0.07 0.23 0.11 0.12 0.06 0.02 0.02 0.01 0.00 0.00 0.00 0.00 0.00 0.00 0.00
0.01 0.00 0.00 0.01 0.04 0.03 0.00 0.01 0.02 0.07 0.07 0.06 0.02 0.03 0.04 0.10 0.15 0.13 0.22 0.20 0.07 0.07 0.04 0.01 0.01 0.01 0.00 0.00 0.00 0.00 0.00 0.00
0.00 0.00 0.00 0.01 0.01 0.01 0.01 0.01 0.01 0.01 0.01 0.01 0.00 0.07 0.05 0.07 0.12 0.11 0.11 0.10 0.04 0.06 0.03 0.00 0.00 0.00 0.00 0.00 0.00 0.00 0.00 0.00
0.00 0.01 0.01 0.02 0.03 0.03 0.05 0.03 0.03 0.00 0.00 0.00 0.00 0.05 0.05 0.09 0.10 0.05 0.03 0.01 0.06 0.19 0.07 0.02 0.00 0.00 0.00 0.01 0.00 0.01 0.01 0.00
0.00 0.01 0.01 0.02 0.04 0.04 0.02 0.02 0.04 0.02 0.01 0.01 0.02 0.05 0.07 0.05 0.02 0.01 0.01 0.03 0.03 0.11 0.09 0.06 0.02 0.05 0.08 0.09 0.08 0.10 0.12 0.14
0.04 0.05 0.02 0.03 0.05 0.05 0.06 0.04 0.04 0.07 0.08 0.07 0.04 0.09 0.07 0.03 0.03 0.04 0.04 0.03 0.17 0.21 0.19 0.16 0.13 0.14 0.23 0.27 0.26 0.19 0.15 0.09
0.01 0.02 0.02 0.02 0.06 0.04 0.03 0.06 0.14 0.12 0.09 0.08 0.09 0.08 0.07 0.06 0.09 0.20 0.21 0.18 0.30 0.28 0.26 0.25 0.22 0.31 0.36 0.30 0.22 0.18 0.16 0.11
0.01 0.03 0.05 0.06 0.04 0.03 0.02 0.08 0.19 0.21 0.16 0.13 0.16 0.19 0.20 0.22 0.27 0.42 0.44 0.34 0.31 0.43 0.39 0.42 0.33 0.25 0.27 0.29 0.28 0.28 0.28 0.26
0.05 0.02 0.03 0.06 0.05 0.05 0.09 0.10 0.09 0.14 0.16 0.16 0.21 0.28 0.31 0.43 0.46 0.37 0.36 0.27 0.16 0.22 0.30 0.28 0.27 0.40 0.52 0.55 0.50 0.40 0.34 0.25
0.00 0.01 0.00 0.01 0.01 0.06 0.07 0.03 0.06 0.12 0.16 0.16 0.27 0.41 0.42 0.41 0.33 0.43 0.38 0.37 0.38 0.46 0.46 0.48 0.52 0.55 0.57 0.51 0.38 0.27 0.20 0.13
0.00 0.01 0.01 0.01 0.00 0.02 0.09 0.15 0.35 0.35 0.43 0.53 0.45 0.47 0.62 0.69 0.63 0.60 0.58 0.55 0.55 0.58 0.60 0.52 0.39 0.30 0.32 0.30 0.17 0.14 0.12 0.08
0.00 0.00 0.00 0.01 0.01 0.01 0.03 0.09 0.20 0.38 0.43 0.67 0.90 0.76 1.04 1.56 1.62 1.26 1.48 1.49 1.15 0.90 0.68 0.45 0.30 0.18 0.12 0.10 0.06 0.07 0.11 0.13
0.00 0.00 0.00 0.00 0.00 0.04 0.10 0.16 0.28 0.45 0.66 0.81 0.84 0.71 1.10 1.02 0.71 0.53 0.42 0.52 0.49 0.30 0.20 0.15 0.11 0.07 0.05 0.04 0.05 0.11 0.14 0.10
0.00 0.00 0.00 0.00 0.05 0.10 0.09 0.09 0.23 0.34 0.37 0.47 0.38 0.34 0.40 0.38 0.31 0.24 0.20 0.18 0.17 0.16 0.14 0.15 0.10 0.05 0.05 0.10 0.12 0.11 0.12 0.12
0.00 0.01 0.01 0.01 0.05 0.06 0.04 0.07 0.12 0.16 0.15 0.17 0.14 0.23 0.17 0.15 0.10 0.12 0.15 0.17 0.24 0.19 0.18 0.09 0.10 0.14 0.18 0.17 0.15 0.14 0.07 0.03
0.00 0.00 0.01 0.01 0.01 0.01 0.02 0.03 0.06 0.05 0.05 0.09 0.07 0.10 0.10 0.11 0.06 0.06 0.09 0.10 0.11 0.14 0.16 0.16 0.18 0.22 0.26 0.19 0.08 0.02 0.01 0.01
0.00 0.00 0.00 0.01 0.01 0.00 0.01 0.01 0.01 0.02 0.05 0.04 0.05 0.06 0.08 0.06 0.09 0.06 0.08 0.11 0.09 0.10 0.16 0.23 0.25 0.21 0.15 0.06 0.04 0.01 0.01 0.01
0.00 0.00 0.00 0.00 0.00 0.00 0.00 0.00 0.00 0.01 0.03 0.04 0.04 0.05 0.06 0.07 0.07 0.09 0.10 0.12 0.17 0.21 0.22 0.19 0.11 0.05 0.08 0.07 0.05 0.01 0.01 0.00

GFSFLT1_prec_precacc_051.txt.gz
Total_Precipitation_Accumulation
0.01 0.01 0.01 0.03 0.02 0.02 0.30 0.39 0.35 0.38 0.34 0.11 0.09 0.03 0.03 0.09 0.10 0.05 0.04 0.01 0.04 0.03 0.01 0.01 0.00 0.00 0.00 0.00 0.00 0.00 0.00 0.00
0.03 0.02 0.02 0.01 0.06 0.03 0.08 0.13 0.11 0.29 0.28 0.10 0.07 0.05 0.04 0.08 0.17 0.07 0.23 0.11 0.12 0.06 0.02 0.02 0.01 0.01 0.00 0.00 0.00 0.00 0.00 0.00
0.01 0.00 0.00 0.01 0.04 0.03 0.00 0.02 0.04 0.11 0.16 0.17 0.05 0.03 0.04 0.10 0.15 0.15 0.22 0.20 0.07 0.07 0.05 0.04 0.03 0.02 0.00 0.00 0.00 0.00 0.00 0.00
0.00 0.00 0.00 0.01 0.01 0.01 0.01 0.01 0.02 0.03 0.05 0.16 0.04 0.08 0.05 0.07 0.13 0.12 0.11 0.11 0.05 0.06 0.04 0.03 0.04 0.03 0.01 0.00 0.00 0.00 0.00 0.00
0.00 0.01 0.01 0.02 0.03 0.03 0.05 0.03 0.03 0.00 0.01 0.03 0.01 0.05 0.05 0.09 0.10 0.05 0.03 0.01 0.07 0.19 0.07 0.02 0.01 0.01 0.01 0.03 0.01 0.01 0.01 0.00
0.00 0.01 0.01 0.02 0.04 0.04 0.02 0.02 0.04 0.02 0.01 0.01 0.02 0.05 0.07 0.05 0.02 0.01 0.01 0.03 0.03 0.11 0.09 0.06 0.02 0.05 0.08 0.11 0.11 0.12 0.13 0.15
0.04 0.05 0.02 0.03 0.05 0.05 0.06 0.04 0.04 0.07 0.08 0.07 0.04 0.09 0.07 0.03 0.03 0.04 0.04 0.03 0.17 0.21 0.19 0.16 0.13 0.14 0.23 0.27 0.29 0.21 0.17 0.12
0.01 0.02 0.02 0.02 0.06 0.04 0.03 0.06 0.14 0.12 0.09 0.08 0.09 0.08 0.07 0.06 0.09 0.20 0.21 0.18 0.30 0.28 0.26 0.25 0.22 0.31 0.36 0.30 0.23 0.19 0.19 0.14
0.01 0.03 0.05 0.06 0.04 0.03 0.02 0.08 0.19 0.21 0.16 0.13 0.16 0.19 0.20 0.22 0.27 0.42 0.44 0.34 0.31 0.43 0.39 0.42 0.33 0.25 0.27 0.29 0.28 0.28 0.29 0.29
0.05 0.02 0.03 0.06 0.05 0.05 0.09 0.10 0.09 0.14 0.16 0.16 0.21 0.28 0.31 0.43 0.46 0.37 0.36 0.27 0.16 0.22 0.30 0.28 0.27 0.40 0.52 0.55 0.50 0.40 0.36 0.29
0.00 0.01 0.00 0.01 0.01 0.06 0.07 0.03 0.06 0.12 0.16 0.16 0.27 0.41 0.42 0.41 0.33 0.43 0.38 0.37 0.38 0.46 0.46 0.48 0.52 0.55 0.57 0.51 0.40 0.30 0.25 0.19
0.00 0.01 0.01 0.01 0.00 0.02 0.09 0.15 0.35 0.35 0.43 0.53 0.45 0.47 0.62 0.69 0.63 0.60 0.58 0.55 0.55 0.58 0.60 0.52 0.39 0.30 0.33 0.38 0.42 0.47 0.46 0.39
0.00 0.00 0.00 0.01 0.01 0.01 0.03 0.09 0.20 0.38 0.43 0.67 0.92 0.77 1.04 1.56 1.62 1.26 1.48 1.49 1.15 0.90 0.68 0.45 0.30 0.19 0.13 0.13 0.19 0.21 0.24 0.27
0.00 0.00 0.00 0.00 0.00 0.04 0.10 0.16 0.28 0.45 0.66 0.81 0.84 0.74 1.12 1.03 0.71 0.53 0.42 0.52 0.49 0.30 0.20 0.15 0.11 0.07 0.05 0.05 0.09 0.20 0.27 0.17
0.00 0.00 0.00 0.00 0.05 0.10 0.09 0.09 0.23 0.34 0.37 0.47 0.38 0.34 0.40 0.38 0.31 0.24 0.20 0.18 0.17 0.16 0.15 0.16 0.12 0.06 0.05 0.10 0.12 0.11 0.12 0.12
0.00 0.01 0.01 0.01 0.05 0.06 0.04 0.07 0.12 0.16 0.15 0.17 0.14 0.23 0.17 0.15 0.10 0.12 0.15 0.18 0.25 0.21 0.21 0.12 0.12 0.16 0.19 0.20 0.16 0.15 0.08 0.04
0.00 0.00 0.01 0.01 0.01 0.01 0.02 0.03 0.06 0.05 0.05 0.09 0.07 0.10 0.10 0.11 0.06 0.06 0.09 0.11 0.13 0.18 0.22 0.24 0.25 0.27 0.35 0.30 0.16 0.06 0.03 0.03
0.00 0.00 0.00 0.01 0.01 0.00 0.01 0.01 0.01 0.02 0.05 0.04 0.05 0.06 0.08 0.06 0.09 0.06 0.08 0.12 0.10 0.13 0.18 0.28 0.32 0.29 0.29 0.15 0.13 0.06 0.07 0.06
0.00 0.00 0.00 0.00 0.00 0.00 0.00 0.00 0.00 0.01 0.03 0.04 0.04 0.05 0.06 0.07 0.07 0.09 0.10 0.12 0.20 0.23 0.25 0.23 0.14 0.10 0.17 0.14 0.10 0.03 0.03 0.02

GFSFLT1_prec_precacc_054.txt.gz
Total_Precipitation_Accumulation
0.01 0.01 0.01 0.03 0.02 0.04 0.34 0.45 0.38 0.39 0.41 0.26 0.21 0.13 0.12 0.15 0.12 0.06 0.04 0.01 0.04 0.03 0.01 0.01 0.00 0.00 0.00 0.00 0.00 0.00 0.00 0.00
0.03 0.02 0.02 0.01 0.06 0.03 0.09 0.23 0.19 0.34 0.31 0.16 0.14 0.10 0.07 0.10 0.18 0.07 0.23 0.11 0.12 0.06 0.02 0.02 0.01 0.01 0.01 0.01 0.00 0.00 0.00 0.00
0.01 0.00 0.00 0.01 0.04 0.03 0.01 0.03 0.07 0.17 0.22 0.22 0.08 0.05 0.05 0.10 0.15 0.15 0.22 0.20 0.07 0.07 0.05 0.04 0.03 0.02 0.00 0.01 0.00 0.00 0.00 0.00
0.00 0.00 0.00 0.01 0.01 0.01 0.01 0.01 0.03 0.04 0.11 0.21 0.14 0.16 0.10 0.09 0.13 0.12 0.11 0.11 0.05 0.06 0.04 0.03 0.04 0.03 0.01 0.00 0.00 0.00 0.00 0.00
0.00 0.01 0.01 0.02 0.03 0.03 0.05 0.03 0.03 0.01 0.02 0.05 0.04 0.09 0.07 0.10 0.10 0.05 0.03 0.01 0.07 0.19 0.07 0.02 0.01 0.01 0.01 0.03 0.02 0.02 0.01 0.01
0.00 0.01 0.01 0.02 0.04 0.04 0.03 0.03 0.04 0.02 0.01 0.02 0.03 0.06 0.07 0.05 0.02 0.01 0.01 0.03 0.03 0.11 0.09 0.06 0.03 0.05 0.08 0.11 0.11 0.12 0.14 0.18
0.04 0.05 0.02 0.03 0.05 0.05 0.06 0.04 0.04 0.07 0.08 0.07 0.04 0.09 0.07 0.03 0.03 0.04 0.04 0.03 0.17 0.21 0.19 0.16 0.16 0.15 0.23 0.30 0.31 0.21 0.17 0.13
0.01 0.02 0.02 0.02 0.06 0.04 0.03 0.06 0.14 0.12 0.09 0.08 0.09 0.08 0.07 0.06 0.09 0.20 0.21 0.18 0.30 0.28 0.26 0.25 0.22 0.31 0.36 0.31 0.25 0.20 0.20 0.15
0.01 0.03 0.05 0.06 0.04 0.03 0.02 0.08 0.19 0.21 0.16 0.13 0.16 0.19 0.20 0.22 0.27 0.42 0.44 0.34 0.31 0.43 0.39 0.42 0.33 0.25 0.27 0.29 0.28 0.28 0.29 0.29
0.05 0.02 0.03 0.06 0.05 0.05 0.09 0.10 0.09 0.14 0.16 0.16 0.21 0.28 0.31 0.43 0.46 0.37 0.36 0.27 0.16 0.22 0.30 0.28 0.27 0.40 0.52 0.55 0.50 0.40 0.36 0.29
0.00 0.01 0.00 0.01 0.01 0.06 0.07 0.03 0.06 0.12 0.16 0.16 0.27 0.41 0.42 0.41 0.33 0.43 0.38 0.37 0.38 0.46 0.46 0.48 0.52 0.55 0.57 0.51 0.40 0.30 0.25 0.19
0.00 0.01 0.01 0.01 0.00 0.02 0.09 0.15 0.35 0.35 0.43 0.53 0.45 0.47 0.62 0.69 0.63 0.60 0.58 0.55 0.55 0.58 0.60 0.52 0.39 0.30 0.33 0.38 0.42 0.47 0.46 0.39
0.00 0.00 0.00 0.01 0.01 0.01 0.03 0.09 0.20 0.38 0.43 0.67 0.92 0.77 1.04 1.56 1.62 1.26 1.48 1.49 1.15 0.90 0.68 0.45 0.30 0.19 0.13 0.13 0.19 0.21 0.24 0.29
0.00 0.00 0.00 0.00 0.00 0.04 0.10 0.16 0.28 0.45 0.66 0.81 0.84 0.74 1.13 1.03 0.71 0.53 0.42 0.52 0.49 0.30 0.20 0.15 0.11 0.07 0.05 0.05 0.09 0.20 0.27 0.20
0.00 0.00 0.00 0.00 0.05 0.10 0.09 0.09 0.23 0.34 0.37 0.47 0.38 0.34 0.41 0.40 0.33 0.24 0.20 0.18 0.17 0.16 0.15 0.16 0.12 0.06 0.05 0.10 0.12 0.11 0.13 0.13
0.00 0.01 0.01 0.01 0.05 0.06 0.04 0.07 0.12 0.16 0.15 0.17 0.14 0.23 0.17 0.15 0.10 0.12 0.15 0.18 0.25 0.21 0.21 0.12 0.12 0.16 0.19 0.20 0.16 0.15 0.08 0.05
0.00 0.00 0.01 0.01 0.01 0.01 0.02 0.03 0.06 0.05 0.05 0.09 0.07 0.10 0.10 0.11 0.06 0.06 0.09 0.11 0.13 0.18 0.22 0.24 0.25 0.28 0.37 0.33 0.18 0.08 0.05 0.04
0.00 0.00 0.00 0.01 0.01 0.00 0.01 0.01 0.01 0.02 0.05 0.04 0.05 0.06 0.08 0.06 0.09 0.06 0.08 0.12 0.10 0.13 0.18 0.28 0.33 0.31 0.32 0.20 0.18 0.08 0.09 0.10
0.00 0.00 0.00 0.00 0.00 0.00 0.00 0.00 0.00 0.01 0.03 0.04 0.04 0.05 0.06 0.07 0.07 0.09 0.11 0.12 0.20 0.24 0.26 0.24 0.15 0.12 0.21 0.18 0.16 0.05 0.04 0.04

GFSFLT1_prec_precacc_057.txt.gz
Total_Precipitation_Accumulation
0.01 0.01 0.01 0.03 0.03 0.05 0.35 0.45 0.39 0.40 0.43 0.30 0.33 0.31 0.31 0.26 0.14 0.06 0.04 0.01 0.04 0.03 0.01 0.01 0.00 0.00 0.00 0.00 0.00 0.00 0.00 0.00
0.03 0.02 0.02 0.01 0.06 0.04 0.10 0.23 0.20 0.34 0.32 0.18 0.19 0.17 0.14 0.14 0.19 0.08 0.23 0.11 0.12 0.06 0.02 0.02 0.01 0.01 0.01 0.01 0.00 0.00 0.00 0.00
0.01 0.00 0.00 0.01 0.05 0.04 0.01 0.03 0.08 0.18 0.23 0.23 0.09 0.07 0.08 0.11 0.15 0.15 0.22 0.22 0.07 0.07 0.05 0.04 0.03 0.02 0.00 0.01 0.00 0.00 0.00 0.00
0.00 0.00 0.00 0.01 0.01 0.01 0.01 0.02 0.03 0.05 0.13 0.23 0.15 0.18 0.12 0.11 0.14 0.13 0.11 0.14 0.05 0.06 0.04 0.03 0.04 0.03 0.01 0.00 0.00 0.00 0.00 0.00
0.00 0.01 0.01 0.02 0.03 0.03 0.06 0.04 0.03 0.01 0.02 0.05 0.05 0.12 0.09 0.11 0.10 0.05 0.03 0.04 0.09 0.19 0.07 0.02 0.01 0.01 0.01 0.03 0.02 0.02 0.01 0.01
0.00 0.01 0.01 0.02 0.04 0.04 0.03 0.03 0.05 0.02 0.02 0.02 0.03 0.06 0.08 0.06 0.02 0.02 0.02 0.05 0.07 0.12 0.09 0.06 0.04 0.06 0.09 0.11 0.11 0.12 0.14 0.19
0.04 0.05 0.02 0.03 0.05 0.05 0.06 0.05 0.04 0.07 0.08 0.08 0.04 0.09 0.07 0.03 0.03 0.04 0.04 0.04 0.20 0.24 0.20 0.16 0.17 0.21 0.29 0.34 0.39 0.26 0.19 0.18
0.01 0.02 0.02 0.02 0.06 0.04 0.03 0.06 0.15 0.13 0.09 0.08 0.10 0.08 0.07 0.06 0.09 0.20 0.21 0.18 0.30 0.29 0.26 0.25 0.23 0.33 0.40 0.36 0.35 0.30 0.28 0.23
0.01 0.03 0.05 0.06 0.04 0.03 0.02 0.08 0.19 0.21 0.16 0.13 0.16 0.19 0.20 0.22 0.27 0.42 0.44 0.34 0.31 0.43 0.39 0.42 0.33 0.25 0.27 0.30 0.30 0.31 0.32 0.32
0.05 0.02 0.03 0.06 0.05 0.05 0.09 0.10 0.09 0.14 0.16 0.17 0.22 0.28 0.32 0.43 0.46 0.37 0.36 0.27 0.16 0.22 0.30 0.28 0.27 0.40 0.52 0.56 0.50 0.41 0.37 0.29
0.00 0.01 0.00 0.01 0.01 0.06 0.07 0.03 0.06 0.12 0.16 0.16 0.27 0.41 0.42 0.41 0.33 0.43 0.38 0.37 0.38 0.46 0.46 0.48 0.52 0.55 0.57 0.51 0.40 0.30 0.25 0.20
0.00 0.01 0.01 0.01 0.00 0.02 0.09 0.15 0.35 0.35 0.43 0.53 0.45 0.47 0.62 0.69 0.63 0.60 0.58 0.55 0.55 0.58 0.60 0.52 0.39 0.30 0.33 0.38 0.42 0.47 0.46 0.39
0.00 0.00 0.00 0.01 0.01 0.01 0.03 0.09 0.20 0.38 0.43 0.67 0.92 0.77 1.04 1.56 1.62 1.26 1.48 1.49 1.15 0.90 0.68 0.45 0.30 0.19 0.13 0.13 0.19 0.21 0.24 0.29
0.00 0.00 0.00 0.00 0.00 0.04 0.10 0.16 0.28 0.45 0.66 0.81 0.84 0.74 1.13 1.03 0.71 0.53 0.42 0.52 0.49 0.30 0.20 0.15 0.11 0.07 0.05 0.05 0.09 0.20 0.27 0.20
0.00 0.00 0.00 0.00 0.05 0.10 0.09 0.09 0.23 0.34 0.37 0.47 0.38 0.34 0.41 0.40 0.33 0.24 0.20 0.18 0.17 0.16 0.15 0.16 0.12 0.06 0.05 0.10 0.12 0.11 0.13 0.13
0.00 0.01 0.01 0.01 0.05 0.06 0.04 0.07 0.12 0.16 0.15 0.17 0.14 0.23 0.17 0.15 0.11 0.13 0.15 0.18 0.25 0.21 0.21 0.12 0.12 0.16 0.19 0.20 0.16 0.15 0.08 0.05
0.00 0.00 0.01 0.01 0.01 0.01 0.02 0.03 0.06 0.05 0.05 0.09 0.07 0.10 0.10 0.11 0.06 0.06 0.09 0.11 0.13 0.18 0.22 0.24 0.25 0.28 0.37 0.33 0.18 0.08 0.05 0.05
0.00 0.00 0.00 0.01 0.01 0.00 0.01 0.01 0.01 0.02 0.05 0.04 0.05 0.06 0.08 0.06 0.09 0.06 0.08 0.12 0.10 0.13 0.18 0.28 0.33 0.31 0.32 0.21 0.19 0.09 0.10 0.11
0.00 0.00 0.00 0.00 0.00 0.00 0.00 0.00 0.00 0.01 0.03 0.04 0.04 0.05 0.06 0.07 0.07 0.09 0.11 0.12 0.20 0.24 0.26 0.24 0.16 0.13 0.22 0.20 0.19 0.07 0.06 0.06

GFSFLT1_prec_precacc_060.txt.gz
Total_Precipitation_Accumulation
0.01 0.01 0.01 0.03 0.03 0.05 0.35 0.45 0.39 0.40 0.43 0.31 0.39 0.49 0.56 0.44 0.26 0.10 0.07 0.02 0.04 0.04 0.01 0.02 0.01 0.00 0.00 0.00 0.00 0.00 0.00 0.00
0.03 0.02 0.02 0.01 0.06 0.04 0.10 0.24 0.21 0.35 0.32 0.19 0.24 0.29 0.43 0.28 0.25 0.09 0.23 0.11 0.12 0.06 0.02 0.02 0.01 0.01 0.01 0.01 0.00 0.00 0.00 0.00
0.01 0.00 0.00 0.01 0.05 0.04 0.02 0.03 0.08 0.18 0.23 0.23 0.10 0.11 0.15 0.18 0.17 0.16 0.23 0.22 0.07 0.07 0.05 0.04 0.03 0.02 0.00 0.01 0.00 0.00 0.00 0.00
0.00 0.00 0.00 0.01 0.01 0.01 0.02 0.02 0.03 0.05 0.13 0.23 0.16 0.18 0.14 0.14 0.15 0.13 0.11 0.14 0.05 0.06 0.04 0.03 0.04 0.03 0.01 0.00 0.00 0.00 0.00 0.00
0.00 0.01 0.01 0.02 0.03 0.03 0.06 0.04 0.03 0.01 0.03 0.06 0.06 0.12 0.10 0.11 0.10 0.06 0.04 0.05 0.10 0.19 0.07 0.02 0.01 0.01 0.02 0.04 0.02 0.02 0.02 0.01
0.00 0.01 0.01 0.02 0.04 0.04 0.03 0.03 0.05 0.02 0.02 0.02 0.03 0.06 0.08 0.06 0.02 0.02 0.02 0.06 0.08 0.12 0.09 0.06 0.04 0.06 0.09 0.15 0.12 0.13 0.14 0.21
0.04 0.05 0.02 0.03 0.05 0.05 0.06 0.05 0.05 0.08 0.08 0.08 0.04 0.09 0.07 0.03 0.03 0.04 0.04 0.04 0.20 0.25 0.20 0.17 0.18 0.22 0.30 0.36 0.40 0.26 0.19 0.19
0.01 0.02 0.02 0.02 0.06 0.04 0.03 0.06 0.15 0.13 0.09 0.08 0.10 0.08 0.07 0.06 0.09 0.20 0.21 0.18 0.31 0.30 0.28 0.26 0.24 0.34 0.40 0.36 0.36 0.32 0.33 0.29
0.01 0.03 0.05 0.06 0.04 0.03 0.02 0.08 0.19 0.21 0.16 0.13 0.16 0.20 0.20 0.22 0.27 0.42 0.44 0.34 0.31 0.43 0.40 0.42 0.34 0.25 0.28 0.31 0.31 0.31 0.34 0.36
0.05 0.02 0.03 0.06 0.05 0.05 0.09 0.10 0.09 0.14 0.16 0.17 0.22 0.28 0.32 0.43 0.46 0.37 0.36 0.27 0.16 0.22 0.30 0.29 0.28 0.41 0.53 0.57 0.52 0.43 0.41 0.30
0.00 0.01 0.00 0.01 0.01 0.06 0.07 0.03 0.06 0.12 0.16 0.16 0.27 0.41 0.42 0.41 0.33 0.43 0.38 0.37 0.38 0.46 0.46 0.49 0.55 0.57 0.58 0.52 0.41 0.31 0.28 0.22
0.00 0.01 0.01 0.01 0.00 0.02 0.09 0.15 0.35 0.35 0.43 0.53 0.45 0.47 0.62 0.69 0.63 0.60 0.58 0.55 0.55 0.58 0.60 0.52 0.39 0.31 0.33 0.38 0.42 0.47 0.46 0.39
0.00 0.00 0.00 0.01 0.01 0.01 0.03 0.09 0.20 0.38 0.43 0.67 0.92 0.77 1.04 1.56 1.62 1.26 1.48 1.49 1.15 0.90 0.68 0.45 0.30 0.19 0.13 0.13 0.19 0.21 0.24 0.29
0.00 0.00 0.00 0.00 0.00 0.04 0.10 0.16 0.28 0.45 0.66 0.81 0.84 0.74 1.13 1.03 0.71 0.53 0.42 0.52 0.49 0.30 0.20 0.15 0.11 0.07 0.05 0.05 0.09 0.20 0.27 0.20
0.00 0.00 0.00 0.00 0.05 0.10 0.09 0.09 0.23 0.35 0.37 0.47 0.38 0.34 0.41 0.40 0.33 0.24 0.20 0.18 0.17 0.16 0.15 0.16 0.12 0.06 0.05 0.10 0.12 0.11 0.13 0.13
0.00 0.01 0.01 0.01 0.05 0.06 0.04 0.07 0.12 0.16 0.15 0.17 0.14 0.23 0.17 0.15 0.11 0.13 0.15 0.18 0.25 0.21 0.21 0.12 0.12 0.16 0.19 0.20 0.16 0.15 0.08 0.05
0.00 0.00 0.01 0.01 0.01 0.01 0.02 0.03 0.06 0.05 0.05 0.09 0.07 0.10 0.10 0.11 0.06 0.06 0.09 0.11 0.13 0.18 0.22 0.24 0.25 0.28 0.37 0.33 0.18 0.08 0.05 0.05
0.00 0.00 0.00 0.01 0.01 0.00 0.01 0.01 0.01 0.02 0.05 0.04 0.05 0.06 0.08 0.06 0.09 0.06 0.08 0.12 0.10 0.13 0.19 0.28 0.33 0.31 0.32 0.21 0.19 0.09 0.10 0.11
0.00 0.00 0.00 0.00 0.00 0.00 0.00 0.00 0.00 0.01 0.03 0.04 0.04 0.05 0.06 0.07 0.07 0.09 0.11 0.12 0.20 0.24 0.26 0.25 0.16 0.13 0.23 0.20 0.19 0.08 0.06 0.06

GFSFLT1_prec_precacc_063.txt.gz
Total_Precipitation_Accumulation
0.01 0.01 0.01 0.03 0.03 0.05 0.35 0.46 0.40 0.41 0.43 0.32 0.39 0.51 0.68 0.47 0.28 0.10 0.07 0.02 0.04 0.04 0.02 0.05 0.03 0.03 0.00 0.00 0.00 0.00 0.00 0.00
0.03 0.02 0.02 0.01 0.06 0.04 0.10 0.24 0.21 0.35 0.32 0.20 0.25 0.31 0.49 0.33 0.34 0.12 0.24 0.11 0.12 0.07 0.02 0.03 0.02 0.04 0.01 0.01 0.00 0.00 0.00 0.00
0.01 0.00 0.00 0.01 0.05 0.04 0.02 0.03 0.08 0.18 0.23 0.23 0.10 0.12 0.17 0.22 0.23 0.21 0.23 0.22 0.07 0.07 0.05 0.04 0.04 0.04 0.02 0.01 0.00 0.00 0.00 0.00
0.00 0.00 0.00 0.01 0.01 0.01 0.02 0.02 0.03 0.05 0.13 0.24 0.16 0.19 0.15 0.18 0.17 0.14 0.11 0.14 0.05 0.06 0.04 0.03 0.04 0.03 0.01 0.00 0.00 0.00 0.00 0.00
0.00 0.01 0.01 0.02 0.03 0.03 0.06 0.04 0.03 0.01 0.03 0.06 0.06 0.12 0.10 0.11 0.10 0.06 0.04 0.05 0.10 0.19 0.07 0.02 0.01 0.01 0.02 0.04 0.02 0.02 0.02 0.01
0.00 0.01 0.01 0.02 0.04 0.04 0.03 0.04 0.05 0.02 0.02 0.02 0.03 0.06 0.08 0.06 0.02 0.02 0.02 0.06 0.08 0.12 0.09 0.06 0.04 0.06 0.09 0.16 0.13 0.13 0.14 0.21
0.04 0.05 0.02 0.03 0.05 0.05 0.06 0.05 0.05 0.08 0.08 0.08 0.04 0.09 0.07 0.03 0.03 0.04 0.04 0.04 0.21 0.25 0.20 0.17 0.18 0.22 0.30 0.36 0.43 0.27 0.19 0.19
0.01 0.02 0.02 0.02 0.06 0.04 0.03 0.06 0.16 0.13 0.09 0.08 0.10 0.08 0.07 0.06 0.09 0.20 0.21 0.18 0.31 0.30 0.28 0.26 0.24 0.34 0.40 0.36 0.38 0.33 0.33 0.29
0.01 0.03 0.05 0.06 0.04 0.03 0.02 0.08 0.19 0.22 0.16 0.13 0.16 0.20 0.20 0.22 0.27 0.42 0.44 0.34 0.31 0.43 0.40 0.42 0.34 0.25 0.29 0.31 0.33 0.32 0.34 0.39
0.05 0.02 0.03 0.06 0.05 0.05 0.09 0.10 0.09 0.14 0.16 0.17 0.22 0.28 0.32 0.43 0.46 0.37 0.36 0.27 0.16 0.22 0.30 0.29 0.28 0.41 0.53 0.58 0.54 0.44 0.43 0.31
0.00 0.01 0.00 0.01 0.01 0.06 0.07 0.03 0.06 0.12 0.16 0.17 0.27 0.41 0.42 0.41 0.33 0.43 0.38 0.37 0.38 0.46 0.46 0.49 0.55 0.57 0.59 0.54 0.43 0.33 0.30 0.22
0.00 0.01 0.01 0.01 0.00 0.02 0.09 0.15 0.35 0.35 0.43 0.53 0.45 0.47 0.62 0.69 0.63 0.60 0.58 0.55 0.55 0.58 0.60 0.52 0.39 0.31 0.34 0.39 0.42 0.47 0.46 0.39
0.00 0.00 0.01 0.01 0.01 0.01 0.03 0.09 0.20 0.38 0.43 0.67 0.92 0.77 1.05 1.56 1.62 1.26 1.48 1.49 1.15 0.90 0.68 0.45 0.30 0.19 0.13 0.13 0.19 0.21 0.24 0.29
0.00 0.00 0.00 0.01 0.04 0.06 0.10 0.17 0.30 0.46 0.66 0.81 0.84 0.74 1.13 1.03 0.71 0.53 0.42 0.52 0.49 0.30 0.20 0.15 0.11 0.07 0.05 0.05 0.09 0.20 0.27 0.20
0.00 0.00 0.00 0.00 0.08 0.15 0.14 0.12 0.26 0.39 0.39 0.47 0.38 0.34 0.41 0.40 0.33 0.24 0.20 0.18 0.17 0.16 0.15 0.16 0.12 0.06 0.05 0.10 0.12 0.11 0.13 0.13
0.00 0.01 0.01 0.01 0.05 0.07 0.07 0.10 0.15 0.22 0.22 0.19 0.14 0.23 0.17 0.15 0.11 0.13 0.15 0.18 0.25 0.21 0.21 0.12 0.12 0.16 0.19 0.20 0.16 0.15 0.08 0.05
0.00 0.00 0.01 0.01 0.01 0.01 0.02 0.04 0.08 0.08 0.06 0.11 0.11 0.11 0.10 0.11 0.06 0.06 0.09 0.11 0.13 0.18 0.22 0.24 0.25 0.28 0.37 0.33 0.18 0.08 0.05 0.05
0.00 0.00 0.00 0.01 0.01 0.00 0.01 0.01 0.01 0.02 0.05 0.05 0.06 0.07 0.09 0.06 0.09 0.07 0.08 0.12 0.10 0.13 0.19 0.28 0.33 0.31 0.33 0.22 0.20 0.10 0.10 0.11
0.00 0.00 0.00 0.00 0.00 0.00 0.00 0.00 0.00 0.01 0.03 0.04 0.04 0.05 0.06 0.08 0.09 0.10 0.11 0.12 0.20 0.24 0.26 0.25 0.16 0.14 0.24 0.21 0.20 0.08 0.06 0.06

GFSFLT1_prec_precacc_069.txt.gz
Total_Precipitation_Accumulation
0.01 0.01 0.01 0.03 0.03 0.05 0.35 0.46 0.41 0.42 0.43 0.32 0.40 0.51 0.69 0.49 0.30 0.16 0.17 0.06 0.05 0.04 0.02 0.05 0.03 0.03 0.00 0.00 0.00 0.00 0.00 0.00
0.03 0.02 0.02 0.01 0.06 0.04 0.10 0.25 0.22 0.36 0.33 0.20 0.26 0.32 0.51 0.35 0.37 0.15 0.26 0.14 0.14 0.07 0.03 0.03 0.02 0.05 0.01 0.01 0.00 0.00 0.00 0.00
0.01 0.00 0.00 0.01 0.05 0.04 0.02 0.04 0.09 0.19 0.24 0.23 0.11 0.12 0.19 0.27 0.32 0.35 0.30 0.24 0.10 0.09 0.06 0.05 0.04 0.05 0.02 0.01 0.00 0.00 0.00 0.00
0.00 0.00 0.00 0.01 0.01 0.01 0.02 0.02 0.04 0.06 0.14 0.24 0.16 0.20 0.17 0.21 0.36 0.55 0.31 0.18 0.10 0.10 0.05 0.04 0.04 0.04 0.02 0.01 0.00 0.00 0.00 0.00
0.00 0.01 0.01 0.02 0.03 0.03 0.06 0.04 0.03 0.02 0.03 0.07 0.06 0.12 0.11 0.13 0.13 0.25 0.35 0.16 0.14 0.24 0.10 0.05 0.01 0.02 0.04 0.05 0.02 0.02 0.02 0.01
0.00 0.01 0.01 0.02 0.04 0.04 0.03 0.04 0.05 0.03 0.03 0.03 0.04 0.06 0.09 0.06 0.03 0.05 0.23 0.24 0.15 0.16 0.11 0.09 0.06 0.07 0.11 0.18 0.13 0.13 0.14 0.21
0.04 0.05 0.02 0.03 0.05 0.05 0.06 0.05 0.05 0.08 0.08 0.08 0.04 0.09 0.07 0.04 0.04 0.05 0.08 0.15 0.29 0.31 0.23 0.19 0.21 0.23 0.31 0.41 0.46 0.27 0.19 0.19
0.01 0.02 0.02 0.02 0.06 0.04 0.03 0.06 0.16 0.13 0.10 0.08 0.10 0.08 0.07 0.06 0.10 0.20 0.21 0.19 0.36 0.35 0.31 0.30 0.27 0.36 0.42 0.40 0.44 0.38 0.34 0.29
0.01 0.03 0.05 0.06 0.04 0.03 0.02 0.08 0.19 0.22 0.16 0.13 0.16 0.20 0.20 0.22 0.28 0.42 0.44 0.34 0.31 0.44 0.41 0.45 0.37 0.28 0.32 0.33 0.35 0.38 0.38 0.40
0.05 0.02 0.03 0.06 0.05 0.05 0.09 0.10 0.09 0.14 0.17 0.17 0.22 0.28 0.32 0.43 0.46 0.37 0.36 0.27 0.16 0.22 0.30 0.30 0.30 0.43 0.55 0.60 0.55 0.46 0.45 0.31
0.00 0.01 0.00 0.01 0.01 0.06 0.07 0.03 0.06 0.12 0.16 0.17 0.27 0.41 0.42 0.41 0.33 0.43 0.38 0.37 0.38 0.46 0.46 0.49 0.55 0.57 0.59 0.55 0.43 0.34 0.31 0.22
0.00 0.01 0.01 0.01 0.00 0.02 0.09 0.15 0.35 0.35 0.43 0.53 0.45 0.47 0.62 0.69 0.63 0.60 0.58 0.55 0.55 0.58 0.60 0.52 0.39 0.31 0.34 0.39 0.42 0.47 0.46 0.39
0.00 0.00 0.01 0.02 0.02 0.02 0.04 0.10 0.21 0.39 0.44 0.68 0.92 0.77 1.05 1.56 1.62 1.26 1.48 1.49 1.15 0.90 0.68 0.45 0.30 0.19 0.13 0.13 0.19 0.21 0.24 0.29
0.00 0.01 0.02 0.04 0.13 0.19 0.25 0.27 0.35 0.49 0.70 0.83 0.85 0.74 1.13 1.03 0.71 0.53 0.42 0.52 0.49 0.30 0.20 0.15 0.11 0.07 0.05 0.05 0.09 0.20 0.27 0.20
0.03 0.04 0.05 0.07 0.17 0.26 0.29 0.27 0.38 0.43 0.44 0.50 0.41 0.36 0.42 0.41 0.33 0.24 0.20 0.18 0.17 0.16 0.15 0.16 0.12 0.06 0.05 0.10 0.12 0.11 0.13 0.13
0.01 0.02 0.02 0.02 0.06 0.10 0.09 0.12 0.17 0.25 0.24 0.22 0.21 0.29 0.23 0.19 0.13 0.14 0.16 0.18 0.25 0.21 0.21 0.12 0.12 0.16 0.19 0.20 0.16 0.15 0.08 0.05
0.00 0.00 0.01 0.01 0.01 0.01 0.02 0.04 0.08 0.08 0.07 0.15 0.17 0.13 0.16 0.18 0.16 0.19 0.16 0.13 0.16 0.20 0.23 0.24 0.25 0.28 0.37 0.33 0.18 0.08 0.05 0.05
0.00 0.00 0.00 0.01 0.01 0.00 0.01 0.01 0.01 0.02 0.05 0.05 0.06 0.07 0.09 0.09 0.16 0.14 0.13 0.16 0.20 0.16 0.23 0.32 0.35 0.33 0.35 0.24 0.22 0.10 0.10 0.11
0.00 0.00 0.00 0.00 0.00 0.00 0.00 0.00 0.00 0.01 0.03 0.04 0.04 0.05 0.06 0.09 0.10 0.10 0.13 0.18 0.25 0.28 0.31 0.28 0.21 0.17 0.27 0.31 0.36 0.18 0.10 0.08

GFSFLT1_prec_precacc_072.txt.gz
Total_Precipitation_Accumulation
0.01 0.01 0.01 0.03 0.03 0.05 0.35 0.47 0.41 0.42 0.44 0.32 0.40 0.52 0.69 0.49 0.36 0.70 0.56 0.27 0.18 0.10 0.05 0.05 0.03 0.03 0.00 0.00 0.00 0.00 0.00 0.00
0.03 0.02 0.02 0.01 0.06 0.04 0.10 0.25 0.22 0.36 0.33 0.20 0.27 0.33 0.52 0.36 0.39 0.37 0.71 0.43 0.33 0.11 0.04 0.03 0.02 0.05 0.01 0.01 0.00 0.00 0.00 0.00
0.01 0.00 0.00 0.01 0.05 0.04 0.02 0.04 0.10 0.19 0.24 0.24 0.11 0.12 0.19 0.27 0.33 0.38 0.40 0.40 0.26 0.16 0.09 0.05 0.04 0.05 0.02 0.01 0.00 0.00 0.00 0.00
0.00 0.00 0.00 0.01 0.01 0.01 0.02 0.02 0.04 0.06 0.14 0.24 0.16 0.20 0.17 0.21 0.36 0.56 0.33 0.20 0.15 0.17 0.11 0.06 0.04 0.04 0.02 0.01 0.00 0.00 0.00 0.00
0.00 0.01 0.01 0.02 0.03 0.03 0.06 0.04 0.03 0.02 0.04 0.07 0.06 0.12 0.12 0.13 0.13 0.26 0.40 0.17 0.15 0.30 0.17 0.08 0.02 0.02 0.04 0.05 0.02 0.02 0.02 0.01
0.00 0.01 0.01 0.02 0.04 0.04 0.03 0.04 0.05 0.03 0.03 0.03 0.04 0.07 0.09 0.06 0.03 0.05 0.26 0.35 0.17 0.19 0.22 0.14 0.07 0.07 0.11 0.18 0.13 0.13 0.14 0.21
0.04 0.05 0.02 0.03 0.05 0.05 0.06 0.05 0.05 0.08 0.09 0.08 0.04 0.09 0.07 0.04 0.04 0.06 0.10 0.21 0.38 0.33 0.32 0.29 0.23 0.23 0.31 0.42 0.46 0.28 0.19 0.19
0.01 0.02 0.02 0.02 0.06 0.04 0.03 0.06 0.16 0.13 0.10 0.09 0.10 0.08 0.08 0.07 0.10 0.20 0.22 0.21 0.40 0.38 0.34 0.33 0.29 0.37 0.42 0.41 0.46 0.38 0.35 0.30
0.01 0.03 0.05 0.06 0.04 0.03 0.02 0.08 0.19 0.22 0.16 0.13 0.16 0.20 0.20 0.22 0.28 0.42 0.45 0.34 0.31 0.45 0.45 0.50 0.42 0.33 0.35 0.37 0.41 0.44 0.44 0.44
0.05 0.02 0.03 0.06 0.05 0.05 0.09 0.10 0.09 0.14 0.17 0.17 0.22 0.28 0.32 0.43 0.46 0.37 0.37 0.27 0.16 0.22 0.31 0.34 0.33 0.48 0.62 0.65 0.61 0.52 0.52 0.40
0.00 0.01 0.00 0.01 0.01 0.06 0.07 0.03 0.06 0.12 0.16 0.17 0.27 0.41 0.42 0.41 0.33 0.43 0.38 0.37 0.39 0.46 0.46 0.49 0.55 0.59 0.64 0.58 0.45 0.35 0.34 0.27
0.00 0.01 0.01 0.01 0.01 0.03 0.09 0.15 0.35 0.35 0.43 0.53 0.45 0.47 0.62 0.69 0.63 0.60 0.58 0.55 0.55 0.58 0.60 0.52 0.39 0.31 0.34 0.41 0.43 0.47 0.46 0.40
0.00 0.00 0.01 0.02 0.05 0.04 0.04 0.11 0.21 0.39 0.45 0.68 0.92 0.77 1.05 1.56 1.62 1.26 1.48 1.49 1.15 0.90 0.68 0.45 0.30 0.19 0.13 0.13 0.19 0.21 0.24 0.29
0.00 0.02 0.03 0.06 0.15 0.21 0.27 0.31 0.39 0.52 0.72 0.84 0.86 0.75 1.13 1.03 0.71 0.53 0.42 0.52 0.49 0.30 0.20 0.15 0.11 0.07 0.05 0.05 0.09 0.20 0.27 0.20
0.04 0.06 0.08 0.13 0.25 0.35 0.37 0.33 0.42 0.47 0.45 0.50 0.42 0.36 0.43 0.42 0.34 0.24 0.20 0.18 0.17 0.16 0.15 0.16 0.12 0.06 0.05 0.10 0.12 0.11 0.13 0.13
0.04 0.06 0.06 0.08 0.12 0.15 0.13 0.15 0.20 0.26 0.24 0.22 0.21 0.29 0.23 0.20 0.14 0.15 0.17 0.18 0.26 0.21 0.21 0.12 0.12 0.16 0.19 0.20 0.16 0.15 0.08 0.05
0.00 0.00 0.02 0.01 0.02 0.01 0.02 0.05 0.09 0.08 0.07 0.15 0.17 0.14 0.17 0.19 0.17 0.21 0.17 0.14 0.19 0.21 0.23 0.25 0.26 0.29 0.38 0.33 0.18 0.08 0.05 0.05
0.00 0.00 0.00 0.01 0.01 0.00 0.01 0.01 0.01 0.02 0.05 0.05 0.06 0.07 0.09 0.10 0.16 0.15 0.15 0.18 0.22 0.19 0.26 0.34 0.36 0.36 0.42 0.30 0.29 0.13 0.11 0.11
0.02 0.02 0.01 0.00 0.00 0.00 0.00 0.00 0.00 0.01 0.03 0.04 0.04 0.05 0.06 0.09 0.10 0.10 0.13 0.18 0.26 0.31 0.33 0.31 0.25 0.22 0.37 0.40 0.47 0.26 0.14 0.10

GFSFLT1_prec_precacc_075.txt.gz
Total_Precipitation_Accumulation
0.01 0.01 0.01 0.03 0.03 0.05 0.35 0.47 0.41 0.42 0.44 0.33 0.41 0.52 0.70 0.50 0.37 0.73 0.66 0.67 0.35 0.16 0.08 0.08 0.10 0.05 0.00 0.00 0.00 0.00 0.00 0.00
0.03 0.02 0.02 0.01 0.06 0.04 0.10 0.25 0.23 0.36 0.33 0.21 0.27 0.33 0.53 0.36 0.40 0.43 0.88 0.80 0.69 0.23 0.14 0.06 0.04 0.05 0.01 0.01 0.00 0.00 0.00 0.00
0.01 0.00 0.00 0.01 0.05 0.04 0.02 0.04 0.10 0.19 0.24 0.24 0.12 0.12 0.20 0.27 0.33 0.42 0.54 0.70 0.69 0.34 0.22 0.10 0.05 0.05 0.02 0.01 0.00 0.00 0.00 0.00
0.00 0.00 0.00 0.01 0.01 0.01 0.02 0.02 0.04 0.06 0.14 0.25 0.17 0.20 0.17 0.22 0.38 0.59 0.42 0.37 0.53 0.43 0.23 0.11 0.05 0.04 0.02 0.01 0.00 0.00 0.00 0.00
0.00 0.01 0.01 0.02 0.03 0.03 0.06 0.04 0.03 0.03 0.04 0.07 0.07 0.13 0.12 0.13 0.13 0.27 0.46 0.22 0.26 0.46 0.28 0.12 0.02 0.02 0.04 0.05 0.02 0.02 0.02 0.01
0.00 0.01 0.01 0.02 0.04 0.04 0.03 0.04 0.05 0.03 0.04 0.03 0.04 0.07 0.09 0.06 0.04 0.06 0.28 0.44 0.26 0.23 0.30 0.21 0.09 0.07 0.11 0.18 0.13 0.13 0.14 0.21
0.04 0.05 0.02 0.03 0.05 0.05 0.06 0.05 0.05 0.09 0.09 0.09 0.05 0.09 0.07 0.04 0.05 0.06 0.10 0.28 0.59 0.47 0.38 0.38 0.28 0.24 0.31 0.42 0.46 0.28 0.19 0.19
0.01 0.02 0.02 0.02 0.06 0.04 0.03 0.06 0.16 0.14 0.10 0.09 0.11 0.09 0.08 0.07 0.10 0.20 0.22 0.22 0.47 0.54 0.43 0.44 0.44 0.42 0.43 0.41 0.46 0.38 0.35 0.30
0.01 0.03 0.05 0.06 0.04 0.03 0.02 0.08 0.20 0.22 0.17 0.13 0.16 0.20 0.21 0.22 0.28 0.43 0.45 0.34 0.32 0.48 0.50 0.55 0.49 0.43 0.41 0.39 0.42 0.44 0.44 0.44
0.05 0.02 0.03 0.06 0.05 0.05 0.09 0.10 0.10 0.15 0.17 0.17 0.22 0.28 0.32 0.43 0.46 0.37 0.37 0.28 0.16 0.22 0.33 0.41 0.41 0.53 0.67 0.68 0.62 0.52 0.52 0.40
0.00 0.01 0.00 0.01 0.01 0.07 0.07 0.04 0.07 0.12 0.16 0.17 0.27 0.41 0.42 0.41 0.33 0.43 0.38 0.37 0.40 0.46 0.46 0.50 0.64 0.67 0.68 0.65 0.49 0.37 0.36 0.28
0.00 0.01 0.02 0.01 0.02 0.04 0.10 0.15 0.35 0.35 0.43 0.53 0.45 0.47 0.62 0.69 0.63 0.60 0.58 0.55 0.56 0.59 0.60 0.52 0.39 0.32 0.34 0.43 0.51 0.52 0.48 0.41
0.01 0.01 0.02 0.03 0.06 0.05 0.05 0.11 0.22 0.39 0.45 0.68 0.92 0.77 1.05 1.56 1.62 1.26 1.48 1.49 1.15 0.90 0.68 0.45 0.30 0.19 0.13 0.13 0.20 0.26 0.28 0.32
0.01 0.04 0.06 0.10 0.17 0.23 0.28 0.32 0.44 0.58 0.75 0.84 0.86 0.75 1.13 1.03 0.71 0.53 0.42 0.52 0.49 0.30 0.20 0.15 0.11 0.07 0.05 0.05 0.09 0.20 0.27 0.20
0.06 0.07 0.10 0.16 0.29 0.40 0.39 0.40 0.52 0.53 0.47 0.52 0.44 0.37 0.43 0.42 0.34 0.24 0.20 0.18 0.17 0.16 0.15 0.16 0.12 0.06 0.05 0.10 0.12 0.11 0.13 0.13
0.08 0.10 0.10 0.11 0.18 0.22 0.19 0.19 0.23 0.28 0.25 0.24 0.22 0.30 0.24 0.21 0.14 0.15 0.17 0.18 0.26 0.21 0.21 0.12 0.12 0.16 0.19 0.20 0.16 0.15 0.08 0.05
0.01 0.02 0.03 0.04 0.06 0.04 0.04 0.06 0.11 0.09 0.07 0.15 0.17 0.15 0.18 0.20 0.19 0.22 0.18 0.15 0.20 0.23 0.25 0.27 0.28 0.31 0.42 0.35 0.20 0.08 0.05 0.05
0.00 0.00 0.00 0.01 0.01 0.01 0.01 0.01 0.02 0.05 0.08 0.05 0.06 0.07 0.09 0.10 0.17 0.16 0.16 0.20 0.23 0.22 0.30 0.38 0.42 0.43 0.54 0.33 0.31 0.14 0.11 0.12
0.07 0.03 0.01 0.00 0.00 0.00 0.00 0.00 0.00 0.01 0.03 0.04 0.04 0.05 0.06 0.09 0.10 0.10 0.13 0.18 0.26 0.31 0.34 0.32 0.27 0.26 0.41 0.42 0.47 0.26 0.14 0.10

GFSFLT1_prec_precacc_078.txt.gz
Total_Precipitation_Accumulation
0.01 0.01 0.01 0.03 0.03 0.05 0.35 0.47 0.41 0.43 0.44 0.33 0.42 0.52 0.70 0.51 0.38 0.75 0.74 1.11 0.89 0.26 0.12 0.09 0.15 0.16 0.07 0.03 0.01 0.00 0.00 0.00
0.03 0.02 0.02 0.01 0.06 0.04 0.10 0.25 0.23 0.37 0.34 0.22 0.28 0.33 0.53 0.36 0.41 0.44 0.89 0.94 1.44 0.70 0.27 0.10 0.10 0.15 0.06 0.02 0.01 0.00 0.00 0.00
0.01 0.00 0.00 0.01 0.05 0.04 0.02 0.04 0.10 0.19 0.24 0.24 0.12 0.12 0.20 0.28 0.34 0.43 0.57 0.73 0.93 0.81 0.41 0.23 0.12 0.12 0.10 0.02 0.01 0.01 0.01 0.00
0.00 0.00 0.00 0.01 0.01 0.01 0.02 0.02 0.05 0.07 0.14 0.25 0.18 0.20 0.18 0.23 0.38 0.60 0.43 0.44 0.69 0.77 0.45 0.37 0.19 0.09 0.06 0.01 0.00 0.00 0.00 0.00
0.00 0.01 0.01 0.02 0.03 0.03 0.06 0.04 0.04 0.03 0.04 0.07 0.07 0.13 0.12 0.14 0.14 0.28 0.46 0.24 0.42 0.82 0.53 0.38 0.22 0.06 0.06 0.05 0.02 0.02 0.02 0.01
0.00 0.01 0.01 0.02 0.04 0.04 0.03 0.04 0.05 0.03 0.04 0.03 0.05 0.07 0.10 0.07 0.04 0.07 0.31 0.47 0.29 0.54 0.52 0.40 0.19 0.11 0.12 0.18 0.13 0.13 0.14 0.21
0.04 0.05 0.02 0.03 0.05 0.05 0.06 0.05 0.05 0.09 0.09 0.09 0.05 0.10 0.08 0.05 0.05 0.07 0.12 0.31 0.69 0.65 0.52 0.45 0.33 0.26 0.32 0.42 0.46 0.28 0.19 0.19
0.01 0.02 0.02 0.02 0.06 0.04 0.03 0.06 0.16 0.14 0.10 0.09 0.11 0.09 0.08 0.07 0.11 0.21 0.23 0.23 0.50 0.63 0.59 0.53 0.47 0.45 0.44 0.41 0.46 0.38 0.35 0.30
0.01 0.03 0.05 0.06 0.04 0.03 0.02 0.08 0.20 0.22 0.17 0.14 0.16 0.20 0.21 0.23 0.29 0.43 0.46 0.35 0.32 0.52 0.64 0.70 0.56 0.46 0.43 0.40 0.42 0.44 0.44 0.44
0.05 0.02 0.03 0.06 0.05 0.05 0.09 0.10 0.10 0.15 0.17 0.17 0.22 0.29 0.32 0.43 0.46 0.37 0.37 0.29 0.17 0.23 0.37 0.48 0.47 0.56 0.70 0.71 0.63 0.52 0.52 0.40
0.00 0.01 0.00 0.01 0.01 0.07 0.07 0.04 0.07 0.12 0.16 0.17 0.28 0.41 0.42 0.41 0.33 0.43 0.38 0.38 0.40 0.47 0.48 0.53 0.68 0.76 0.73 0.68 0.54 0.39 0.36 0.28
0.00 0.01 0.02 0.01 0.02 0.05 0.10 0.15 0.35 0.35 0.43 0.53 0.45 0.47 0.62 0.69 0.63 0.60 0.58 0.56 0.56 0.59 0.60 0.54 0.40 0.34 0.39 0.46 0.54 0.57 0.52 0.42
0.02 0.02 0.03 0.04 0.07 0.06 0.06 0.11 0.22 0.39 0.45 0.68 0.92 0.78 1.05 1.57 1.62 1.27 1.48 1.49 1.15 0.91 0.69 0.46 0.31 0.19 0.15 0.16 0.21 0.28 0.31 0.35
0.02 0.05 0.08 0.11 0.19 0.25 0.31 0.33 0.50 0.64 0.77 0.85 0.86 0.75 1.13 1.04 0.72 0.53 0.43 0.52 0.49 0.30 0.20 0.15 0.11 0.07 0.05 0.06 0.10 0.20 0.28 0.21
0.09 0.09 0.12 0.18 0.32 0.43 0.44 0.49 0.62 0.60 0.49 0.53 0.45 0.37 0.43 0.42 0.34 0.25 0.21 0.18 0.18 0.17 0.15 0.16 0.12 0.06 0.05 0.11 0.13 0.12 0.13 0.14
0.13 0.13 0.13 0.14 0.20 0.26 0.25 0.27 0.30 0.32 0.27 0.25 0.23 0.31 0.25 0.21 0.15 0.16 0.17 0.19 0.26 0.22 0.21 0.13 0.13 0.16 0.20 0.20 0.16 0.15 0.08 0.05
0.06 0.07 0.07 0.07 0.09 0.06 0.08 0.11 0.14 0.10 0.07 0.15 0.18 0.15 0.18 0.21 0.19 0.22 0.19 0.16 0.21 0.23 0.26 0.27 0.29 0.33 0.45 0.35 0.20 0.08 0.05 0.05
0.03 0.03 0.03 0.04 0.03 0.02 0.03 0.03 0.03 0.05 0.08 0.06 0.06 0.07 0.09 0.10 0.17 0.16 0.16 0.20 0.24 0.23 0.31 0.40 0.45 0.45 0.60 0.35 0.33 0.15 0.13 0.15
0.09 0.03 0.01 0.00 0.00 0.00 0.00 0.01 0.00 0.01 0.03 0.05 0.05 0.05 0.07 0.09 0.10 0.10 0.13 0.18 0.27 0.31 0.34 0.32 0.27 0.27 0.43 0.42 0.48 0.26 0.15 0.11

GFSFLT1_prec_precacc_081.txt.gz
Total_Precipitation_Accumulation
0.01 0.01 0.01 0.03 0.03 0.05 0.35 0.47 0.41 0.43 0.44 0.33 0.42 0.53 0.70 0.51 0.38 0.75 0.76 1.14 0.97 0.34 0.19 0.14 0.16 0.21 0.35 0.23 0.12 0.06 0.01 0.00
0.03 0.02 0.02 0.01 0.06 0.04 0.10 0.25 0.23 0.37 0.34 0.22 0.29 0.34 0.54 0.37 0.41 0.44 0.91 0.96 1.68 0.90 0.45 0.16 0.14 0.17 0.19 0.15 0.12 0.06 0.03 0.01
0.01 0.00 0.00 0.01 0.05 0.04 0.02 0.04 0.10 0.19 0.24 0.24 0.12 0.13 0.21 0.29 0.35 0.44 0.59 0.75 1.00 1.28 0.71 0.46 0.20 0.19 0.18 0.12 0.10 0.07 0.05 0.01
0.00 0.00 0.00 0.01 0.01 0.01 0.02 0.02 0.05 0.07 0.14 0.25 0.18 0.21 0.19 0.25 0.41 0.61 0.44 0.47 0.74 0.96 0.80 0.58 0.36 0.23 0.13 0.04 0.05 0.05 0.01 0.02
0.00 0.01 0.01 0.02 0.03 0.03 0.06 0.04 0.04 0.03 0.04 0.07 0.07 0.14 0.13 0.14 0.14 0.28 0.47 0.27 0.46 0.87 0.78 0.64 0.41 0.24 0.21 0.09 0.06 0.07 0.05 0.02
0.00 0.01 0.01 0.02 0.04 0.04 0.03 0.04 0.05 0.03 0.04 0.03 0.05 0.07 0.10 0.08 0.05 0.07 0.31 0.47 0.30 0.61 0.72 0.74 0.46 0.34 0.27 0.25 0.17 0.17 0.16 0.22
0.04 0.05 0.02 0.03 0.05 0.05 0.06 0.05 0.05 0.09 0.09 0.09 0.05 0.10 0.08 0.06 0.06 0.08 0.13 0.31 0.70 0.79 0.84 0.70 0.68 0.51 0.47 0.48 0.49 0.31 0.21 0.20
0.01 0.02 0.02 0.02 0.06 0.04 0.03 0.06 0.16 0.14 0.10 0.09 0.11 0.09 0.09 0.08 0.11 0.21 0.24 0.24 0.51 0.68 0.78 0.71 0.65 0.67 0.54 0.46 0.49 0.40 0.36 0.30
0.01 0.03 0.05 0.06 0.04 0.03 0.02 0.08 0.20 0.22 0.17 0.14 0.16 0.21 0.21 0.23 0.29 0.44 0.47 0.36 0.33 0.54 0.70 0.80 0.63 0.56 0.50 0.44 0.43 0.44 0.45 0.44
0.05 0.02 0.03 0.06 0.05 0.05 0.09 0.10 0.10 0.15 0.18 0.17 0.22 0.29 0.32 0.44 0.46 0.38 0.39 0.30 0.18 0.24 0.38 0.56 0.58 0.61 0.74 0.76 0.66 0.53 0.52 0.40
0.01 0.01 0.00 0.01 0.01 0.07 0.07 0.04 0.07 0.14 0.18 0.17 0.28 0.42 0.43 0.42 0.33 0.43 0.39 0.39 0.42 0.48 0.49 0.54 0.74 0.84 0.77 0.69 0.55 0.40 0.36 0.28
0.00 0.01 0.02 0.01 0.02 0.05 0.11 0.16 0.36 0.36 0.46 0.53 0.45 0.47 0.63 0.70 0.63 0.60 0.59 0.57 0.58 0.61 0.63 0.55 0.42 0.40 0.46 0.52 0.55 0.58 0.53 0.43
0.03 0.04 0.03 0.04 0.07 0.07 0.07 0.12 0.22 0.41 0.49 0.69 0.92 0.78 1.05 1.58 1.63 1.27 1.48 1.49 1.16 0.92 0.71 0.48 0.31 0.20 0.17 0.20 0.28 0.30 0.32 0.37
0.05 0.07 0.10 0.12 0.20 0.26 0.33 0.35 0.51 0.70 0.81 0.86 0.87 0.75 1.13 1.04 0.72 0.54 0.43 0.53 0.49 0.30 0.22 0.17 0.12 0.08 0.06 0.06 0.11 0.21 0.29 0.23
0.13 0.13 0.16 0.21 0.34 0.45 0.48 0.54 0.67 0.63 0.52 0.54 0.45 0.37 0.43 0.42 0.34 0.26 0.22 0.19 0.18 0.17 0.15 0.16 0.12 0.07 0.06 0.12 0.14 0.14 0.15 0.15
0.18 0.17 0.16 0.17 0.23 0.29 0.31 0.32 0.35 0.37 0.31 0.26 0.24 0.31 0.25 0.22 0.16 0.16 0.17 0.19 0.27 0.23 0.22 0.13 0.13 0.16 0.20 0.21 0.18 0.18 0.12 0.09
0.13 0.11 0.11 0.11 0.12 0.10 0.14 0.17 0.17 0.14 0.10 0.16 0.18 0.16 0.19 0.22 0.20 0.23 0.19 0.17 0.21 0.24 0.27 0.28 0.29 0.33 0.47 0.36 0.20 0.08 0.06 0.06
0.11 0.11 0.09 0.09 0.07 0.04 0.08 0.10 0.09 0.08 0.10 0.08 0.07 0.08 0.10 0.11 0.18 0.17 0.18 0.22 0.25 0.24 0.32 0.41 0.46 0.46 0.62 0.35 0.33 0.15 0.13 0.15
0.17 0.11 0.05 0.04 0.04 0.03 0.04 0.06 0.07 0.06 0.05 0.07 0.07 0.06 0.07 0.10 0.12 0.12 0.15 0.20 0.29 0.33 0.36 0.34 0.28 0.28 0.45 0.43 0.49 0.27 0.15 0.11

GFSFLT1_prec_precacc_087.txt.gz
Total_Precipitation_Accumulation
0.01 0.01 0.01 0.03 0.03 0.05 0.35 0.47 0.44 0.49 0.45 0.33 0.42 0.53 0.71 0.51 0.39 0.76 0.78 1.20 1.02 0.41 0.27 0.21 0.25 0.26 0.40 0.49 0.47 0.47 0.58 0.32
0.03 0.02 0.02 0.01 0.06 0.04 0.10 0.26 0.26 0.38 0.34 0.22 0.29 0.34 0.54 0.37 0.41 0.45 0.91 0.99 1.75 1.01 0.52 0.22 0.18 0.19 0.22 0.33 0.50 0.47 0.57 0.35
0.01 0.00 0.00 0.01 0.05 0.04 0.02 0.04 0.12 0.20 0.24 0.24 0.12 0.13 0.22 0.29 0.36 0.44 0.59 0.76 1.03 1.35 0.76 0.52 0.28 0.24 0.20 0.33 0.40 0.41 0.43 0.20
0.00 0.00 0.00 0.01 0.01 0.01 0.02 0.03 0.06 0.07 0.14 0.25 0.18 0.21 0.19 0.25 0.42 0.63 0.44 0.49 0.77 1.00 0.93 0.72 0.46 0.35 0.23 0.16 0.26 0.21 0.23 0.18
0.00 0.01 0.01 0.02 0.03 0.03 0.06 0.05 0.05 0.03 0.04 0.07 0.07 0.14 0.13 0.14 0.15 0.30 0.48 0.29 0.51 0.92 0.79 0.68 0.49 0.35 0.40 0.28 0.24 0.24 0.18 0.18
0.00 0.01 0.01 0.02 0.04 0.04 0.03 0.08 0.09 0.03 0.04 0.03 0.05 0.07 0.10 0.08 0.05 0.08 0.33 0.48 0.32 0.62 0.73 0.78 0.58 0.47 0.44 0.47 0.39 0.37 0.29 0.34
0.04 0.05 0.02 0.03 0.05 0.05 0.06 0.08 0.08 0.09 0.09 0.09 0.05 0.10 0.08 0.06 0.06 0.08 0.14 0.32 0.71 0.80 0.86 0.76 0.81 0.64 0.63 0.75 0.71 0.48 0.34 0.31
0.01 0.02 0.02 0.02 0.08 0.06 0.03 0.08 0.18 0.14 0.10 0.09 0.11 0.09 0.09 0.08 0.12 0.22 0.24 0.24 0.51 0.68 0.81 0.82 0.80 0.86 0.75 0.75 0.81 0.62 0.51 0.39
0.02 0.03 0.05 0.06 0.04 0.05 0.04 0.13 0.24 0.24 0.18 0.14 0.16 0.21 0.21 0.23 0.30 0.44 0.47 0.36 0.33 0.54 0.71 0.89 0.78 0.85 0.84 0.66 0.67 0.63 0.59 0.54
0.07 0.03 0.03 0.07 0.09 0.12 0.14 0.16 0.16 0.20 0.23 0.19 0.24 0.30 0.32 0.44 0.47 0.39 0.41 0.31 0.19 0.25 0.39 0.58 0.66 0.79 1.07 0.97 0.83 0.66 0.64 0.49
0.02 0.04 0.05 0.11 0.43 0.70 0.60 0.32 0.22 0.20 0.25 0.21 0.30 0.43 0.43 0.42 0.34 0.44 0.40 0.40 0.43 0.50 0.49 0.55 0.77 0.95 0.96 0.99 0.75 0.55 0.49 0.36
0.02 0.08 0.12 0.23 0.31 0.43 0.52 0.48 0.58 0.40 0.51 0.58 0.49 0.50 0.64 0.71 0.65 0.62 0.60 0.58 0.58 0.62 0.65 0.55 0.44 0.48 0.61 0.79 0.85 0.70 0.65 0.53
0.04 0.05 0.07 0.21 0.33 0.35 0.31 0.34 0.43 0.50 0.51 0.78 1.04 0.82 1.07 1.59 1.64 1.28 1.49 1.50 1.16 0.93 0.73 0.49 0.32 0.23 0.26 0.40 0.55 0.48 0.39 0.46
0.07 0.09 0.12 0.18 0.26 0.34 0.39 0.44 0.63 0.79 0.88 0.98 0.98 0.85 1.15 1.06 0.73 0.55 0.44 0.53 0.49 0.30 0.23 0.19 0.13 0.09 0.10 0.19 0.27 0.36 0.43 0.29
0.15 0.16 0.19 0.25 0.40 0.48 0.56 0.63 0.78 0.70 0.61 0.65 0.54 0.45 0.46 0.43 0.35 0.27 0.23 0.20 0.19 0.17 0.16 0.22 0.17 0.08 0.12 0.20 0.23 0.24 0.33 0.32
0.20 0.21 0.21 0.22 0.30 0.35 0.41 0.44 0.47 0.46 0.43 0.43 0.38 0.38 0.29 0.24 0.17 0.17 0.18 0.20 0.27 0.23 0.22 0.15 0.18 0.19 0.22 0.25 0.24 0.26 0.21 0.28
0.16 0.16 0.16 0.17 0.18 0.16 0.22 0.29 0.31 0.23 0.15 0.23 0.23 0.19 0.21 0.23 0.22 0.25 0.21 0.19 0.23 0.26 0.29 0.30 0.31 0.35 0.50 0.39 0.23 0.10 0.10 0.15
0.15 0.16 0.16 0.16 0.15 0.12 0.16 0.20 0.19 0.22 0.20 0.13 0.12 0.12 0.13 0.13 0.21 0.20 0.20 0.23 0.27 0.26 0.35 0.44 0.48 0.48 0.65 0.38 0.36 0.15 0.14 0.17
0.29 0.22 0.18 0.15 0.14 0.14 0.15 0.16 0.20 0.20 0.17 0.18 0.13 0.13 0.15 0.16 0.17 0.19 0.21 0.24 0.31 0.35 0.37 0.35 0.30 0.31 0.49 0.46 0.53 0.27 0.16 0.13

GFSFLT1_prec_precacc_093.txt.gz
Total_Precipitation_Accumulation
0.01 0.01 0.01 0.03 0.03 0.05 0.35 0.47 0.46 0.56 0.58 0.51 0.59 0.56 0.71 0.51 0.39 0.76 0.78 1.20 1.02 0.41 0.27 0.21 0.27 0.31 0.44 0.50 0.50 0.50 0.61 0.44
0.03 0.02 0.02 0.01 0.06 0.04 0.10 0.27 0.28 0.44 0.39 0.28 0.34 0.34 0.55 0.40 0.42 0.45 0.91 0.99 1.76 1.01 0.52 0.23 0.19 0.22 0.30 0.39 0.54 0.49 0.61 0.59
0.01 0.00 0.00 0.01 0.05 0.04 0.02 0.04 0.13 0.21 0.26 0.29 0.18 0.23 0.32 0.37 0.38 0.45 0.59 0.76 1.04 1.36 0.78 0.53 0.31 0.29 0.23 0.36 0.44 0.43 0.51 0.44
0.00 0.00 0.00 0.01 0.01 0.01 0.02 0.03 0.06 0.08 0.16 0.28 0.24 0.31 0.26 0.36 0.44 0.63 0.44 0.49 0.77 1.01 0.94 0.75 0.49 0.42 0.29 0.20 0.30 0.23 0.31 0.33
0.00 0.01 0.01 0.02 0.03 0.03 0.06 0.05 0.05 0.03 0.06 0.10 0.09 0.15 0.13 0.14 0.15 0.30 0.48 0.29 0.51 0.92 0.80 0.70 0.51 0.38 0.46 0.33 0.30 0.30 0.25 0.27
0.00 0.01 0.01 0.02 0.04 0.04 0.03 0.08 0.09 0.04 0.06 0.05 0.08 0.10 0.13 0.14 0.09 0.08 0.33 0.48 0.32 0.63 0.74 0.80 0.59 0.48 0.47 0.50 0.47 0.46 0.36 0.41
0.04 0.05 0.02 0.03 0.13 0.09 0.06 0.08 0.09 0.13 0.12 0.13 0.09 0.12 0.13 0.10 0.08 0.09 0.14 0.32 0.72 0.81 0.87 0.77 0.82 0.66 0.65 0.77 0.78 0.60 0.46 0.42
0.02 0.03 0.03 0.02 0.12 0.23 0.16 0.19 0.21 0.16 0.12 0.13 0.16 0.16 0.13 0.12 0.14 0.23 0.24 0.24 0.52 0.69 0.82 0.83 0.81 0.87 0.78 0.79 0.86 0.80 0.69 0.55
0.03 0.06 0.08 0.07 0.04 0.13 0.25 0.40 0.44 0.40 0.32 0.28 0.28 0.27 0.23 0.26 0.31 0.45 0.48 0.36 0.33 0.55 0.72 0.90 0.79 0.87 0.91 0.79 0.84 0.81 0.90 0.81
0.09 0.05 0.08 0.10 0.09 0.29 0.34 0.31 0.24 0.35 0.45 0.38 0.39 0.37 0.35 0.45 0.47 0.39 0.41 0.31 0.19 0.25 0.39 0.59 0.67 0.81 1.16 1.29 1.12 0.95 0.94 0.87
0.03 0.05 0.12 0.20 0.52 0.88 0.92 0.78 0.60 0.51 0.52 0.44 0.50 0.55 0.51 0.45 0.34 0.45 0.40 0.40 0.43 0.50 0.49 0.55 0.77 0.97 1.03 1.24 1.08 0.87 0.88 0.76
0.02 0.08 0.17 0.35 0.47 0.73 0.94 1.10 1.38 1.09 1.04 0.95 0.78 0.65 0.75 0.77 0.66 0.62 0.60 0.58 0.58 0.62 0.65 0.55 0.44 0.48 0.66 0.96 1.21 1.02 1.04 0.94
0.04 0.05 0.09 0.30 0.50 0.64 0.75 1.00 1.49 1.40 1.08 1.18 1.31 0.97 1.20 1.64 1.65 1.29 1.50 1.50 1.17 0.93 0.73 0.49 0.32 0.23 0.31 0.58 0.93 0.97 0.80 0.84
0.07 0.09 0.12 0.19 0.31 0.51 0.65 0.94 1.34 1.48 1.66 1.45 1.28 1.02 1.25 1.09 0.75 0.56 0.46 0.55 0.51 0.31 0.23 0.19 0.14 0.09 0.13 0.37 0.57 0.85 0.87 0.65
0.15 0.16 0.19 0.25 0.41 0.52 0.65 1.03 1.17 0.90 1.23 1.37 1.03 0.63 0.53 0.46 0.36 0.28 0.24 0.21 0.20 0.18 0.17 0.23 0.17 0.08 0.15 0.30 0.40 0.56 0.74 0.71
0.20 0.21 0.21 0.23 0.30 0.35 0.42 0.49 0.80 0.80 0.84 1.31 1.26 0.71 0.36 0.26 0.18 0.18 0.19 0.21 0.28 0.24 0.23 0.16 0.19 0.19 0.24 0.30 0.34 0.43 0.58 0.68
0.16 0.16 0.16 0.18 0.18 0.16 0.23 0.32 0.38 0.46 0.43 0.83 1.10 0.89 0.31 0.25 0.23 0.26 0.22 0.20 0.24 0.27 0.30 0.31 0.34 0.37 0.54 0.42 0.28 0.17 0.18 0.27
0.16 0.17 0.16 0.17 0.17 0.15 0.18 0.23 0.26 0.37 0.41 0.47 0.42 0.57 0.42 0.21 0.23 0.22 0.22 0.25 0.29 0.27 0.37 0.47 0.51 0.51 0.70 0.44 0.42 0.20 0.20 0.21
0.29 0.23 0.19 0.17 0.19 0.20 0.19 0.21 0.26 0.33 0.41 0.45 0.49 0.39 0.42 0.24 0.22 0.22 0.27 0.27 0.34 0.39 0.41 0.39 0.32 0.35 0.54 0.54 0.60 0.29 0.19 0.18

GFSFLT1_prec_precacc_096.txt.gz
Total_Precipitation_Accumulation
0.01 0.01 0.01 0.03 0.03 0.05 0.35 0.47 0.46 0.57 0.62 0.56 0.62 0.60 0.77 0.54 0.41 0.76 0.78 1.20 1.02 0.41 0.27 0.21 0.28 0.32 0.45 0.51 0.51 0.50 0.61 0.44
0.03 0.02 0.02 0.01 0.06 0.04 0.10 0.27 0.28 0.44 0.41 0.29 0.36 0.35 0.56 0.41 0.44 0.49 0.93 0.99 1.76 1.01 0.52 0.23 0.19 0.23 0.30 0.39 0.55 0.49 0.61 0.59
0.01 0.00 0.00 0.01 0.05 0.04 0.02 0.04 0.13 0.21 0.26 0.29 0.18 0.23 0.33 0.44 0.51 0.61 0.68 0.77 1.04 1.36 0.78 0.54 0.31 0.29 0.23 0.37 0.45 0.44 0.52 0.44
0.00 0.00 0.00 0.01 0.01 0.01 0.02 0.03 0.06 0.08 0.16 0.28 0.24 0.35 0.35 0.53 0.70 0.87 0.59 0.54 0.78 1.01 0.94 0.75 0.49 0.43 0.29 0.21 0.32 0.27 0.33 0.36
0.00 0.01 0.01 0.02 0.03 0.03 0.06 0.05 0.05 0.03 0.06 0.10 0.09 0.15 0.13 0.15 0.18 0.45 0.66 0.39 0.55 0.94 0.81 0.70 0.51 0.38 0.47 0.34 0.33 0.36 0.32 0.32
0.00 0.01 0.01 0.02 0.04 0.04 0.03 0.08 0.09 0.04 0.06 0.05 0.08 0.10 0.13 0.14 0.09 0.12 0.38 0.49 0.34 0.65 0.75 0.80 0.60 0.49 0.47 0.53 0.49 0.49 0.40 0.46
0.04 0.05 0.02 0.03 0.13 0.09 0.06 0.08 0.09 0.13 0.12 0.13 0.09 0.12 0.13 0.10 0.08 0.10 0.14 0.33 0.72 0.82 0.88 0.77 0.83 0.67 0.66 0.78 0.81 0.63 0.50 0.45
0.02 0.03 0.03 0.02 0.12 0.23 0.16 0.19 0.21 0.16 0.12 0.13 0.16 0.16 0.14 0.13 0.14 0.23 0.24 0.24 0.52 0.69 0.82 0.84 0.82 0.88 0.79 0.80 0.87 0.83 0.72 0.59
0.04 0.06 0.09 0.08 0.06 0.13 0.26 0.43 0.47 0.41 0.33 0.29 0.32 0.35 0.35 0.36 0.39 0.48 0.48 0.36 0.33 0.55 0.72 0.91 0.80 0.88 0.92 0.81 0.86 0.82 0.92 0.83
0.12 0.08 0.09 0.11 0.12 0.31 0.38 0.35 0.30 0.40 0.51 0.41 0.44 0.47 0.50 0.61 0.63 0.53 0.45 0.31 0.19 0.25 0.39 0.59 0.68 0.83 1.17 1.31 1.14 0.97 0.97 0.89
0.04 0.07 0.14 0.20 0.53 0.92 1.02 0.87 0.69 0.62 0.63 0.54 0.60 0.67 0.62 0.60 0.48 0.51 0.43 0.40 0.43 0.50 0.50 0.56 0.78 0.98 1.04 1.25 1.10 0.89 0.93 0.84
0.02 0.09 0.17 0.36 0.49 0.75 1.00 1.22 1.52 1.23 1.13 1.13 0.94 0.76 0.87 0.89 0.81 0.72 0.65 0.59 0.59 0.62 0.65 0.55 0.45 0.49 0.67 0.96 1.21 1.04 1.10 1.10
0.04 0.05 0.09 0.31 0.53 0.66 0.79 1.10 1.66 1.45 1.14 1.27 1.41 1.07 1.34 1.75 1.76 1.36 1.53 1.50 1.17 0.93 0.73 0.49 0.32 0.23 0.31 0.58 0.93 0.99 0.86 0.94
0.07 0.09 0.12 0.20 0.36 0.55 0.68 0.97 1.44 1.58 1.76 1.56 1.47 1.21 1.41 1.17 0.80 0.58 0.46 0.55 0.51 0.31 0.23 0.19 0.14 0.09 0.13 0.37 0.57 0.91 1.01 0.85
0.15 0.16 0.19 0.25 0.42 0.56 0.68 1.09 1.24 0.98 1.34 1.47 1.18 0.99 0.83 0.56 0.38 0.28 0.24 0.21 0.20 0.18 0.17 0.23 0.18 0.08 0.16 0.30 0.40 0.58 0.83 0.92
0.20 0.21 0.21 0.23 0.30 0.35 0.44 0.53 0.90 0.87 0.91 1.39 1.47 1.13 0.82 0.65 0.26 0.19 0.20 0.21 0.28 0.24 0.23 0.16 0.19 0.19 0.24 0.31 0.38 0.46 0.63 0.81
0.16 0.16 0.16 0.18 0.19 0.17 0.23 0.32 0.39 0.50 0.49 0.93 1.34 1.76 0.97 0.82 0.63 0.28 0.23 0.20 0.24 0.27 0.30 0.31 0.34 0.37 0.55 0.43 0.31 0.22 0.23 0.36
0.16 0.17 0.16 0.18 0.18 0.16 0.20 0.23 0.26 0.39 0.49 0.77 0.87 0.96 1.39 0.93 0.74 0.29 0.23 0.25 0.29 0.28 0.37 0.47 0.51 0.51 0.71 0.44 0.44 0.22 0.25 0.23
0.30 0.23 0.20 0.17 0.19 0.20 0.21 0.24 0.27 0.34 0.45 0.56 0.69 0.56 0.93 1.07 0.61 0.31 0.29 0.28 0.34 0.39 0.41 0.39 0.32 0.35 0.55 0.56 0.64 0.31 0.26 0.25

GFSFLT1_prec_precacc_102.txt.gz
Total_Precipitation_Accumulation
0.01 0.01 0.01 0.03 0.03 0.05 0.35 0.47 0.46 0.57 0.62 0.58 0.63 0.62 0.78 0.55 0.41 0.76 0.78 1.20 1.03 0.42 0.27 0.21 0.28 0.33 0.46 0.52 0.51 0.50 0.61 0.44
0.03 0.02 0.02 0.01 0.06 0.04 0.10 0.27 0.28 0.44 0.41 0.29 0.36 0.35 0.57 0.42 0.45 0.54 0.94 0.99 1.76 1.01 0.53 0.23 0.19 0.23 0.31 0.40 0.55 0.50 0.62 0.60
0.01 0.00 0.00 0.01 0.05 0.04 0.02 0.04 0.13 0.21 0.26 0.29 0.18 0.23 0.33 0.51 0.56 0.65 0.72 0.78 1.05 1.36 0.78 0.54 0.31 0.30 0.23 0.38 0.46 0.45 0.53 0.45
0.00 0.00 0.00 0.01 0.01 0.01 0.02 0.03 0.06 0.08 0.16 0.28 0.25 0.37 0.40 0.61 0.73 0.88 0.67 0.70 0.93 1.09 0.97 0.76 0.50 0.43 0.30 0.22 0.33 0.29 0.34 0.37
0.00 0.01 0.01 0.02 0.03 0.03 0.06 0.05 0.05 0.03 0.06 0.10 0.09 0.15 0.13 0.15 0.18 0.47 0.74 0.79 1.13 1.42 1.07 0.90 0.64 0.42 0.48 0.35 0.34 0.38 0.36 0.34
0.00 0.01 0.01 0.02 0.04 0.04 0.03 0.08 0.09 0.04 0.07 0.05 0.08 0.10 0.14 0.14 0.09 0.13 0.41 0.69 0.56 1.08 1.20 1.16 0.80 0.58 0.54 0.59 0.51 0.52 0.44 0.50
0.04 0.05 0.02 0.03 0.13 0.09 0.06 0.08 0.09 0.13 0.13 0.13 0.09 0.13 0.13 0.10 0.09 0.11 0.17 0.36 0.77 0.86 0.95 0.88 0.92 0.72 0.72 0.84 0.82 0.66 0.53 0.49
0.02 0.03 0.03 0.02 0.12 0.23 0.16 0.20 0.21 0.16 0.13 0.14 0.17 0.17 0.15 0.14 0.16 0.25 0.29 0.27 0.55 0.71 0.84 0.86 0.85 0.90 0.81 0.83 0.90 0.86 0.75 0.62
0.04 0.06 0.09 0.08 0.06 0.14 0.27 0.44 0.47 0.44 0.37 0.34 0.37 0.40 0.39 0.40 0.44 0.59 0.55 0.38 0.36 0.60 0.74 0.94 0.85 0.95 1.00 0.86 0.89 0.85 0.94 0.86
0.12 0.08 0.10 0.13 0.13 0.32 0.39 0.37 0.31 0.46 0.61 0.51 0.54 0.58 0.62 0.76 0.73 0.72 0.69 0.45 0.30 0.37 0.43 0.68 0.86 0.97 1.29 1.40 1.17 0.99 1.00 0.92
0.04 0.07 0.15 0.23 0.57 0.94 1.05 0.91 0.74 0.70 0.78 0.72 0.76 0.80 0.69 0.67 0.59 0.77 0.73 0.70 0.61 0.66 0.62 0.70 0.94 1.17 1.24 1.38 1.11 0.90 0.95 0.86
0.02 0.09 0.17 0.36 0.50 0.80 1.04 1.26 1.63 1.40 1.36 1.41 1.15 0.95 0.98 0.96 0.90 0.81 0.86 0.76 0.79 0.73 0.76 0.66 0.60 0.66 0.80 1.05 1.24 1.05 1.12 1.13
0.04 0.05 0.09 0.31 0.54 0.69 0.82 1.13 1.80 1.70 1.31 1.55 1.65 1.34 1.63 1.94 1.89 1.50 1.66 1.62 1.25 0.99 0.78 0.58 0.40 0.29 0.35 0.61 0.95 1.00 0.88 0.95
0.07 0.09 0.12 0.20 0.37 0.58 0.74 1.06 1.56 1.74 1.92 1.80 1.62 1.33 1.66 1.47 1.08 0.80 0.64 0.60 0.52 0.32 0.25 0.21 0.18 0.12 0.15 0.38 0.58 0.92 1.01 0.86
0.15 0.16 0.19 0.25 0.42 0.58 0.74 1.26 1.45 1.25 1.48 1.58 1.42 1.25 1.15 0.85 0.68 0.50 0.36 0.28 0.21 0.19 0.18 0.24 0.19 0.09 0.16 0.31 0.41 0.58 0.83 0.93
0.20 0.21 0.21 0.23 0.30 0.36 0.45 0.58 1.05 1.18 1.35 1.66 1.56 1.33 1.09 1.03 0.78 0.57 0.36 0.26 0.30 0.25 0.23 0.16 0.20 0.19 0.24 0.31 0.38 0.47 0.63 0.81
0.16 0.16 0.16 0.18 0.19 0.17 0.25 0.34 0.41 0.59 0.67 1.11 1.50 1.88 1.18 1.15 1.28 1.28 0.85 0.38 0.32 0.30 0.31 0.32 0.35 0.37 0.56 0.44 0.31 0.22 0.25 0.38
0.16 0.18 0.17 0.18 0.19 0.17 0.23 0.31 0.31 0.40 0.53 0.92 1.06 1.24 1.60 1.19 1.39 1.50 1.62 1.22 0.77 0.46 0.40 0.48 0.52 0.52 0.72 0.46 0.46 0.22 0.25 0.25
0.31 0.24 0.20 0.18 0.20 0.21 0.22 0.27 0.31 0.37 0.47 0.63 0.78 0.68 1.11 1.41 1.07 1.09 1.18 1.22 1.13 0.83 0.53 0.42 0.33 0.36 0.56 0.57 0.66 0.32 0.26 0.26